DW7984 Weather Reports


time (UTC)temp
C
wind
direction
speed
KPH
gust
KPH
rain 1hr
cm
rain 24hr
cm
rain mn
cm
humidity
%
barometer
mb
20260507123304 18 133 6.4 17.7 0.00 0.00 0.00 67 1047.9
20260507123208 18 133 6.4 17.7 0.00 0.00 0.00 68 1047.9
20260507123120 18 174 6.4 17.7 0.00 0.00 0.00 68 1047.9
20260507123111 18 214 4.8 17.7 0.00 0.00 0.00 67 1047.9
20260507123053 18 177 6.4 17.7 0.00 0.00 0.00 67 1047.9
20260507122807 18 177 4.8 17.7 0.00 0.00 0.00 67 1047.9
20260507122730 18 228 6.4 14.5 0.00 0.00 0.00 67 1047.9
20260507122722 18 172 6.4 14.5 0.00 0.00 0.00 67 1047.9
20260507122710 18 172 4.8 14.5 0.00 0.00 0.00 67 1047.9
20260507122701 18 172 4.8 14.5 0.00 0.00 0.00 67 1047.9
20260507122647 18 171 6.4 14.5 0.00 0.00 0.00 66 1047.8
20260507122417 18 177 6.4 16.1 0.00 0.00 0.00 67 1047.8
20260507122407 18 92 6.4 16.1 0.00 0.00 0.00 66 1047.8
20260507122132 18 92 6.4 16.1 0.00 0.00 0.00 66 1047.7
20260507122111 18 116 6.4 16.1 0.00 0.00 0.00 66 1047.7
20260507122056 18 114 6.4 16.1 0.00 0.00 0.00 66 1047.7
20260507121551 18 119 6.4 16.1 0.00 0.00 0.00 66 1047.8
20260507121527 18 164 8.0 16.1 0.00 0.00 0.00 66 1047.9
20260507121201 18 154 8.0 16.1 0.00 0.00 0.00 66 1047.9
20260507121102 18 184 6.4 16.1 0.00 0.00 0.00 66 1048.0
20260507120958 18 194 6.4 16.1 0.00 0.00 0.00 65 1047.9
20260507120853 18 188 6.4 16.1 0.00 0.00 0.00 65 1047.9
20260507120839 18 184 6.4 16.1 0.00 0.00 0.00 65 1047.9
20260507120829 18 102 6.4 14.5 0.00 0.00 0.00 65 1047.9
20260507120818 18 89 6.4 14.5 0.00 0.00 0.00 64 1047.9
20260507120807 18 208 6.4 14.5 0.00 0.00 0.00 64 1047.9
20260507120539 19 93 6.4 14.5 0.00 0.00 0.00 63 1047.8
20260507120530 19 101 6.4 14.5 0.00 0.00 0.00 63 1047.8
20260507120149 19 237 6.4 14.5 0.00 0.00 0.00 63 1047.8
20260507120120 19 141 6.4 14.5 0.00 0.00 0.00 63 1047.9
20260507120113 19 180 6.4 14.5 0.00 0.00 0.00 62 1047.9
20260507120056 19 184 6.4 14.5 0.00 0.00 0.00 62 1047.9
20260507115743 19 121 6.4 14.5 0.00 0.00 0.00 62 1047.9
20260507115726 19 221 6.4 14.5 0.00 0.00 0.00 62 1047.9
20260507115718 19 233 4.8 14.5 0.00 0.00 0.00 62 1047.8
20260507115705 19 234 4.8 14.5 0.00 0.00 0.00 61 1047.8
20260507115657 19 197 4.8 11.3 0.00 0.00 0.00 61 1047.9
20260507115648 19 184 4.8 11.3 0.00 0.00 0.00 61 1047.9
20260507115638 19 184 3.2 11.3 0.00 0.00 0.00 61 1047.9
20260507115630 19 189 3.2 9.7 0.00 0.00 0.00 62 1047.8
20260507115144 19 130 4.8 14.5 0.00 0.00 0.00 62 1047.8
20260507114915 19 129 4.8 14.5 0.00 0.00 0.00 62 1047.8
20260507114904 19 64 4.8 14.5 0.00 0.00 0.00 62 1047.8
20260507114857 19 64 6.4 14.5 0.00 0.00 0.00 62 1047.8
20260507114621 19 64 6.4 14.5 0.00 0.00 0.00 61 1047.8
20260507114350 19 64 6.4 14.5 0.00 0.00 0.00 62 1047.9
20260507114339 19 62 6.4 14.5 0.00 0.00 0.00 61 1047.8
20260507114109 19 98 6.4 14.5 0.00 0.00 0.00 60 1047.9
20260507114053 19 93 6.4 12.9 0.00 0.00 0.00 59 1047.9
20260507113737 19 93 6.4 12.9 0.00 0.00 0.00 59 1047.9
20260507113637 19 91 6.4 12.9 0.00 0.00 0.00 59 1047.9
20260507113537 19 83 6.4 16.1 0.00 0.00 0.00 60 1047.9
20260507113435 19 219 4.8 16.1 0.00 0.00 0.00 60 1047.9
20260507113342 19 109 6.4 16.1 0.00 0.00 0.00 60 1048.0
20260507113333 19 108 6.4 16.1 0.00 0.00 0.00 60 1048.0
20260507113234 19 109 6.4 16.1 0.00 0.00 0.00 59 1048.0
20260507113137 19 106 6.4 16.1 0.00 0.00 0.00 58 1048.0
20260507113035 19 50 6.4 16.1 0.00 0.00 0.00 57 1048.0
20260507112933 19 86 6.4 16.1 0.00 0.00 0.00 56 1048.0
20260507112831 20 87 4.8 16.1 0.00 0.00 0.00 57 1048.0
20260507112732 20 87 4.8 16.1 0.00 0.00 0.00 58 1048.0
20260507112632 20 82 4.8 16.1 0.00 0.00 0.00 58 1048.0
20260507112532 20 149 4.8 12.9 0.00 0.00 0.00 58 1048.0
20260507112429 20 149 4.8 12.9 0.00 0.00 0.00 57 1048.0
20260507112327 20 149 4.8 12.9 0.00 0.00 0.00 57 1048.0
20260507112227 20 100 4.8 12.9 0.00 0.00 0.00 57 1048.1
20260507112129 20 188 4.8 12.9 0.00 0.00 0.00 56 1048.0
20260507112027 20 150 4.8 12.9 0.00 0.00 0.00 59 1048.1
20260507111923 20 151 4.8 12.9 0.00 0.00 0.00 58 1048.1
20260507111823 20 147 4.8 12.9 0.00 0.00 0.00 58 1048.1
20260507111723 20 147 6.4 12.9 0.00 0.00 0.00 57 1048.1
20260507111621 20 118 6.4 14.5 0.00 0.00 0.00 57 1048.1
20260507111521 20 106 4.8 14.5 0.00 0.00 0.00 57 1048.1
20260507111415 20 83 4.8 14.5 0.00 0.00 0.00 56 1048.1
20260507111315 20 131 6.4 14.5 0.00 0.00 0.00 56 1048.1
20260507111217 20 159 6.4 14.5 0.00 0.00 0.00 55 1048.2
20260507111121 20 159 8.0 16.1 0.00 0.00 0.00 55 1048.2
20260507111109 20 159 8.0 16.1 0.00 0.00 0.00 57 1048.2
20260507111058 20 131 8.0 16.1 0.00 0.00 0.00 55 1048.2
20260507110807 20 131 8.0 16.1 0.00 0.00 0.00 55 1048.2
20260507110707 20 153 8.0 16.1 0.00 0.00 0.00 55 1048.2
20260507110607 20 167 6.4 16.1 0.00 0.00 0.00 56 1048.3
20260507110515 20 72 6.4 16.1 0.00 0.00 0.00 57 1048.3
20260507110506 20 73 6.4 16.1 0.00 0.00 0.00 56 1048.2
20260507110448 20 72 6.4 16.1 0.00 0.00 0.00 56 1048.3
20260507110146 20 97 6.4 16.1 0.00 0.00 0.00 57 1048.3
20260507110138 20 85 6.4 16.1 0.00 0.00 0.00 59 1048.3
20260507110127 19 88 4.8 16.1 0.00 0.00 0.00 59 1048.4
20260507110113 19 126 4.8 16.1 0.00 0.00 0.00 59 1048.4
20260507105844 19 150 4.8 12.9 0.00 0.00 0.00 57 1048.4
20260507105606 19 157 4.8 12.9 0.00 0.00 0.00 59 1048.4
20260507105553 19 153 4.8 12.9 0.00 0.00 0.00 59 1048.4
20260507105308 19 150 6.4 12.9 0.00 0.00 0.00 61 1048.4
20260507105201 18 125 6.4 16.1 0.00 0.00 0.00 61 1048.4
20260507105130 18 126 6.4 16.1 0.00 0.00 0.00 61 1048.4
20260507105122 18 126 6.4 16.1 0.00 0.00 0.00 60 1048.4
20260507104831 18 126 6.4 16.1 0.00 0.00 0.00 60 1048.4
20260507104800 18 127 6.4 16.1 0.00 0.00 0.00 61 1048.4
20260507104746 18 128 6.4 16.1 0.00 0.00 0.00 60 1048.4
20260507104737 18 127 6.4 16.1 0.00 0.00 0.00 60 1048.4
20260507104724 18 127 6.4 16.1 0.00 0.00 0.00 60 1048.4
20260507104455 18 127 6.4 16.1 0.00 0.00 0.00 59 1048.5
20260507104440 18 131 6.4 16.1 0.00 0.00 0.00 59 1048.5
20260507104215 18 71 6.4 14.5 0.00 0.00 0.00 58 1048.4
20260507104155 18 70 8.0 16.1 0.00 0.00 0.00 58 1048.4
20260507104147 18 69 8.0 16.1 0.00 0.00 0.00 59 1048.4
20260507104136 18 72 8.0 16.1 0.00 0.00 0.00 58 1048.5
20260507103555 18 73 8.0 16.1 0.00 0.00 0.00 59 1048.5
20260507103452 18 68 8.0 16.1 0.00 0.00 0.00 58 1048.5
20260507103353 18 88 8.0 16.1 0.00 0.00 0.00 58 1048.5
20260507103333 18 102 8.0 16.1 0.00 0.00 0.00 59 1048.5
20260507103252 18 113 8.0 16.1 0.00 0.00 0.00 59 1048.5
20260507103150 18 114 8.0 16.1 0.00 0.00 0.00 59 1048.6
20260507103049 19 112 8.0 16.1 0.00 0.00 0.00 59 1048.5
20260507102948 19 122 8.0 14.5 0.00 0.00 0.00 60 1048.6
20260507102849 19 116 6.4 14.5 0.00 0.00 0.00 60 1048.6
20260507102835 19 132 6.4 14.5 0.00 0.00 0.00 60 1048.6
20260507102818 19 143 6.4 14.5 0.00 0.00 0.00 61 1048.6
20260507102810 19 94 4.8 14.5 0.00 0.00 0.00 62 1048.6
20260507102802 19 85 4.8 14.5 0.00 0.00 0.00 61 1048.6
20260507102751 19 132 4.8 14.5 0.00 0.00 0.00 61 1048.6
20260507102737 19 133 4.8 14.5 0.00 0.00 0.00 61 1048.7
20260507102253 19 164 4.8 12.9 0.00 0.00 0.00 62 1048.7
20260507102242 19 166 4.8 12.9 0.00 0.00 0.00 63 1048.7
20260507102232 19 175 3.2 12.9 0.00 0.00 0.00 62 1048.7
20260507102006 19 177 4.8 12.9 0.00 0.00 0.00 62 1048.7
20260507101711 19 86 3.2 12.9 0.00 0.00 0.00 63 1048.7
20260507101659 18 86 3.2 12.9 0.00 0.00 0.00 62 1048.7
20260507101334 18 181 3.2 11.3 0.00 0.00 0.00 62 1048.7
20260507101239 18 181 4.8 11.3 0.00 0.00 0.00 61 1048.7
20260507101131 18 182 4.8 12.9 0.00 0.00 0.00 62 1048.8
20260507101029 18 181 4.8 16.1 0.00 0.00 0.00 62 1048.8
20260507100929 18 181 6.4 16.1 0.00 0.00 0.00 63 1048.8
20260507100829 18 181 4.8 16.1 0.00 0.00 0.00 63 1048.8
20260507100727 18 177 6.4 16.1 0.00 0.00 0.00 64 1048.8
20260507100625 18 176 6.4 16.1 0.00 0.00 0.00 64 1048.8
20260507100525 18 177 6.4 16.1 0.00 0.00 0.00 63 1048.8
20260507100425 18 180 6.4 16.1 0.00 0.00 0.00 63 1049.0
20260507100339 18 85 6.4 16.1 0.00 0.00 0.00 62 1049.0
20260507100325 18 86 6.4 16.1 0.00 0.00 0.00 62 1049.0
20260507100222 18 87 6.4 16.1 0.00 0.00 0.00 63 1049.0
20260507100123 18 95 4.8 16.1 0.00 0.00 0.00 63 1049.0
20260507100026 18 145 4.8 14.5 0.00 0.00 0.00 64 1049.0
20260507095923 18 156 4.8 11.3 0.00 0.00 0.00 65 1049.0
20260507095836 18 157 4.8 11.3 0.00 0.00 0.00 65 1049.0
20260507095823 18 157 4.8 11.3 0.00 0.00 0.00 64 1049.0
20260507095723 18 156 4.8 11.3 0.00 0.00 0.00 64 1049.0
20260507095628 18 149 3.2 11.3 0.00 0.00 0.00 66 1049.0
20260507095618 18 106 3.2 11.3 0.00 0.00 0.00 66 1049.0
20260507095606 18 177 3.2 11.3 0.00 0.00 0.00 66 1049.0
20260507095553 18 179 1.6 11.3 0.00 0.00 0.00 65 1049.0
20260507095544 18 179 1.6 11.3 0.00 0.00 0.00 64 1049.0
20260507095315 18 119 1.6 6.4 0.00 0.00 0.00 64 1049.0
20260507095306 18 119 1.6 6.4 0.00 0.00 0.00 64 1049.0
20260507095258 18 118 1.6 6.4 0.00 0.00 0.00 66 1049.1
20260507094714 18 118 3.2 9.7 0.00 0.00 0.00 65 1049.0
20260507094618 18 118 3.2 9.7 0.00 0.00 0.00 65 1049.0
20260507094607 18 118 3.2 9.7 0.00 0.00 0.00 65 1049.0
20260507094556 18 119 3.2 9.7 0.00 0.00 0.00 65 1049.0
20260507094308 18 118 3.2 9.7 0.00 0.00 0.00 66 1049.0
20260507094241 18 118 3.2 9.7 0.00 0.00 0.00 65 1049.0
20260507094233 18 118 3.2 9.7 0.00 0.00 0.00 65 1049.1
20260507093904 17 118 3.2 9.7 0.00 0.00 0.00 66 1049.1
20260507093832 17 118 3.2 9.7 0.00 0.00 0.00 66 1049.1
20260507093805 17 119 3.2 9.7 0.00 0.00 0.00 66 1049.1
20260507093704 17 118 3.2 9.7 0.00 0.00 0.00 66 1049.1
20260507093607 17 119 3.2 9.7 0.00 0.00 0.00 66 1049.0
20260507093535 17 119 3.2 9.7 0.00 0.00 0.00 67 1049.1
20260507093518 17 119 3.2 9.7 0.00 0.00 0.00 68 1049.1
20260507093505 17 119 3.2 9.7 0.00 0.00 0.00 68 1049.1
20260507093455 17 115 3.2 9.7 0.00 0.00 0.00 67 1049.1
20260507092913 17 115 3.2 9.7 0.00 0.00 0.00 67 1049.1
20260507092902 17 114 3.2 9.7 0.00 0.00 0.00 68 1049.2
20260507092850 17 115 3.2 9.7 0.00 0.00 0.00 68 1049.2
20260507092836 17 115 4.8 9.7 0.00 0.00 0.00 68 1049.2
20260507092609 17 115 4.8 9.7 0.00 0.00 0.00 69 1049.2
20260507092555 17 115 4.8 11.3 0.00 0.00 0.00 68 1049.2
20260507092326 17 114 4.8 11.3 0.00 0.00 0.00 68 1049.2
20260507092318 17 115 4.8 11.3 0.00 0.00 0.00 68 1049.1
20260507091950 17 114 4.8 11.3 0.00 0.00 0.00 68 1049.2
20260507091905 17 115 4.8 11.3 0.00 0.00 0.00 67 1049.2
20260507091857 17 115 4.8 11.3 0.00 0.00 0.00 68 1049.2
20260507091845 17 115 4.8 11.3 0.00 0.00 0.00 67 1049.2
20260507091615 17 116 3.2 11.3 0.00 0.00 0.00 68 1049.2
20260507091333 17 123 3.2 11.3 0.00 0.00 0.00 68 1049.2
20260507091242 17 120 3.2 11.3 0.00 0.00 0.00 67 1049.2
20260507091141 17 115 3.2 11.3 0.00 0.00 0.00 67 1049.1
20260507091042 17 114 3.2 11.3 0.00 0.00 0.00 70 1049.1
20260507090938 17 114 3.2 11.3 0.00 0.00 0.00 70 1049.1
20260507090834 17 115 3.2 11.3 0.00 0.00 0.00 72 1049.1
20260507090739 17 118 3.2 6.4 0.00 0.00 0.00 71 1049.1
20260507090728 16 118 3.2 6.4 0.00 0.00 0.00 71 1049.2
20260507090721 16 118 3.2 6.4 0.00 0.00 0.00 72 1049.1
20260507090335 16 118 3.2 9.7 0.00 0.00 0.00 73 1049.1
20260507090238 16 118 3.2 9.7 0.00 0.00 0.00 72 1049.1
20260507090141 16 118 3.2 9.7 0.00 0.00 0.00 72 1049.1
20260507090037 16 118 4.8 9.7 0.00 0.00 0.00 72 1049.1
20260507085946 16 118 4.8 12.9 0.00 0.00 0.00 72 1049.1
20260507085838 16 118 4.8 12.9 0.00 0.00 0.00 73 1049.1
20260507085741 16 118 3.2 12.9 0.00 0.00 0.00 72 1049.1
20260507085635 16 117 3.2 12.9 0.00 0.00 0.00 73 1049.1
20260507085532 16 116 3.2 12.9 0.00 0.00 0.00 73 1049.0
20260507085443 16 114 3.2 12.9 0.00 0.00 0.00 72 1049.0
20260507085337 16 114 4.8 12.9 0.00 0.00 0.00 73 1049.1
20260507085231 16 114 3.2 12.9 0.00 0.00 0.00 73 1049.0
20260507085127 16 114 3.2 12.9 0.00 0.00 0.00 73 1049.0
20260507085029 16 114 3.2 12.9 0.00 0.00 0.00 75 1049.0
20260507084932 16 112 3.2 9.7 0.00 0.00 0.00 77 1049.0
20260507084904 16 112 3.2 9.7 0.00 0.00 0.00 76 1049.0
20260507084857 16 112 3.2 9.7 0.00 0.00 0.00 77 1049.0
20260507084848 16 112 3.2 9.7 0.00 0.00 0.00 77 1049.0
20260507084521 16 112 3.2 9.7 0.00 0.00 0.00 77 1049.0
20260507084427 16 111 4.8 9.7 0.00 0.00 0.00 77 1049.0
20260507084357 16 112 4.8 11.3 0.00 0.00 0.00 78 1049.0
20260507084340 16 112 4.8 11.3 0.00 0.00 0.00 77 1049.0
20260507084331 16 110 4.8 11.3 0.00 0.00 0.00 77 1049.0
20260507084321 16 110 4.8 11.3 0.00 0.00 0.00 77 1049.0
20260507084303 16 110 4.8 11.3 0.00 0.00 0.00 77 1049.0
20260507084257 16 110 4.8 11.3 0.00 0.00 0.00 77 1049.0
20260507084246 16 110 4.8 11.3 0.00 0.00 0.00 77 1049.0
20260507084236 16 110 4.8 11.3 0.00 0.00 0.00 76 1049.0
20260507084218 16 108 4.8 11.3 0.00 0.00 0.00 77 1049.0
20260507084209 16 108 4.8 11.3 0.00 0.00 0.00 77 1049.0
20260507084201 16 108 4.8 11.3 0.00 0.00 0.00 77 1049.0
20260507084147 16 108 4.8 11.3 0.00 0.00 0.00 77 1049.0
20260507084134 16 110 4.8 11.3 0.00 0.00 0.00 77 1049.0
20260507083907 16 109 4.8 12.9 0.00 0.00 0.00 78 1049.0
20260507082933 16 114 4.8 12.9 0.00 0.00 0.00 76 1049.0
20260507082553 16 119 4.8 12.9 0.00 0.00 0.00 76 1049.0
20260507082529 16 120 4.8 12.9 0.00 0.00 0.00 76 1049.1
20260507082506 16 120 4.8 12.9 0.00 0.00 0.00 76 1049.1
20260507082452 16 118 3.2 11.3 0.00 0.00 0.00 76 1049.0
20260507082439 16 118 3.2 11.3 0.00 0.00 0.00 76 1049.1
20260507081844 16 120 3.2 11.3 0.00 0.00 0.00 76 1049.1
20260507081830 16 121 3.2 11.3 0.00 0.00 0.00 76 1049.1
20260507081744 16 119 3.2 11.3 0.00 0.00 0.00 77 1049.1
20260507081640 16 119 1.6 11.3 0.00 0.00 0.00 77 1049.1
20260507081540 16 119 1.6 11.3 0.00 0.00 0.00 77 1049.1
20260507081528 16 64 1.6 8.0 0.00 0.00 0.00 78 1049.1
20260507081504 16 64 1.6 8.0 0.00 0.00 0.00 78 1049.1
20260507081347 16 64 1.6 8.0 0.00 0.00 0.00 78 1049.1
20260507081238 16 64 1.6 4.8 0.00 0.00 0.00 77 1049.1
20260507081137 16 64 1.6 6.4 0.00 0.00 0.00 77 1049.1
20260507081035 16 64 3.2 6.4 0.00 0.00 0.00 77 1049.1
20260507080935 16 64 3.2 12.9 0.00 0.00 0.00 78 1049.2
20260507080829 16 64 3.2 14.5 0.00 0.00 0.00 78 1049.1
20260507080734 15 64 4.8 14.5 0.00 0.00 0.00 78 1049.1
20260507080632 15 64 4.8 14.5 0.00 0.00 0.00 77 1049.1
20260507080618 15 64 4.8 14.5 0.00 0.00 0.00 77 1049.1
20260507080611 15 64 4.8 14.5 0.00 0.00 0.00 77 1049.1
20260507080539 15 64 4.8 14.5 0.00 0.00 0.00 76 1049.1
20260507080307 16 64 4.8 14.5 0.00 0.00 0.00 76 1049.2
20260507080250 16 64 4.8 14.5 0.00 0.00 0.00 76 1049.2
20260507080010 16 57 4.8 14.5 0.00 0.00 0.00 76 1049.2
20260507075708 16 56 4.8 14.5 0.00 0.00 0.00 76 1049.3
20260507075655 16 56 4.8 14.5 0.00 0.00 0.00 77 1049.3
20260507075647 16 56 6.4 14.5 0.00 0.00 0.00 76 1049.3
20260507075617 16 56 6.4 14.5 0.00 0.00 0.00 76 1049.2
20260507075607 16 56 6.4 14.5 0.00 0.00 0.00 75 1049.3
20260507075550 16 56 8.0 14.5 0.00 0.00 0.00 75 1049.3
20260507075544 16 56 6.4 14.5 0.00 0.00 0.00 76 1049.2
20260507075311 16 48 6.4 12.9 0.00 0.00 0.00 76 1049.3
20260507075045 16 93 6.4 12.9 0.00 0.00 0.00 76 1049.2
20260507074812 16 108 4.8 12.9 0.00 0.00 0.00 75 1049.3
20260507074805 16 131 4.8 12.9 0.00 0.00 0.00 75 1049.3
20260507074215 16 127 4.8 12.9 0.00 0.00 0.00 74 1049.3
20260507074110 16 129 3.2 12.9 0.00 0.00 0.00 74 1049.3
20260507074011 16 97 3.2 9.7 0.00 0.00 0.00 75 1049.3
20260507073910 16 95 3.2 9.7 0.00 0.00 0.00 75 1049.3
20260507073843 16 95 3.2 11.3 0.00 0.00 0.00 75 1049.3
20260507073831 16 95 3.2 11.3 0.00 0.00 0.00 75 1049.3
20260507073508 16 93 3.2 11.3 0.00 0.00 0.00 76 1049.4
20260507073411 16 92 3.2 11.3 0.00 0.00 0.00 76 1049.4
20260507073308 16 89 3.2 11.3 0.00 0.00 0.00 76 1049.3
20260507073206 16 89 3.2 11.3 0.00 0.00 0.00 76 1049.3
20260507073144 16 89 3.2 11.3 0.00 0.00 0.00 75 1049.4
20260507073136 16 89 3.2 11.3 0.00 0.00 0.00 75 1049.3
20260507072805 16 182 3.2 8.0 0.00 0.00 0.00 76 1049.3
20260507072742 16 183 3.2 8.0 0.00 0.00 0.00 76 1049.3
20260507072735 16 183 3.2 8.0 0.00 0.00 0.00 75 1049.3
20260507072716 16 183 3.2 8.0 0.00 0.00 0.00 76 1049.2
20260507072421 16 184 3.2 6.4 0.00 0.00 0.00 77 1049.2
20260507072407 15 184 3.2 6.4 0.00 0.00 0.00 77 1049.3
20260507072344 15 184 3.2 6.4 0.00 0.00 0.00 77 1049.3
20260507072108 15 261 1.6 6.4 0.00 0.00 0.00 77 1049.3
20260507072056 15 261 1.6 6.4 0.00 0.00 0.00 77 1049.3
20260507071826 15 266 1.6 6.4 0.00 0.00 0.00 78 1049.3
20260507071505 15 266 1.6 6.4 0.00 0.00 0.00 79 1049.3
20260507071400 15 266 1.6 4.8 0.00 0.00 0.00 79 1049.2
20260507071327 15 265 1.6 4.8 0.00 0.00 0.00 79 1049.2
20260507071311 15 266 1.6 4.8 0.00 0.00 0.00 79 1049.2
20260507071200 15 266 1.6 4.8 0.00 0.00 0.00 79 1049.2
20260507071100 15 266 1.6 4.8 0.00 0.00 0.00 79 1049.3
20260507071001 15 266 1.6 4.8 0.00 0.00 0.00 78 1049.3
20260507070941 15 265 3.2 4.8 0.00 0.00 0.00 78 1049.3
20260507070922 15 266 3.2 4.8 0.00 0.00 0.00 78 1049.3
20260507070914 15 265 3.2 4.8 0.00 0.00 0.00 78 1049.3
20260507070901 15 266 3.2 4.8 0.00 0.00 0.00 77 1049.3
20260507070851 15 266 3.2 4.8 0.00 0.00 0.00 78 1049.2
20260507070842 15 266 3.2 6.4 0.00 0.00 0.00 78 1049.2
20260507070828 15 266 3.2 9.7 0.00 0.00 0.00 78 1049.2
20260507070336 15 266 3.2 9.7 0.00 0.00 0.00 78 1049.2
20260507070321 15 266 3.2 9.7 0.00 0.00 0.00 78 1049.2
20260507070311 15 266 3.2 9.7 0.00 0.00 0.00 78 1049.2
20260507070302 15 266 3.2 9.7 0.00 0.00 0.00 78 1049.2
20260507070030 15 265 3.2 9.7 0.00 0.00 0.00 78 1049.1
20260507070018 15 266 3.2 9.7 0.00 0.00 0.00 79 1049.2
20260507065747 15 266 1.6 9.7 0.00 0.00 0.00 79 1049.2
20260507065725 15 263 1.6 4.8 0.00 0.00 0.00 80 1049.1
20260507065631 15 263 1.6 4.8 0.00 0.00 0.00 80 1049.1
20260507065154 15 263 1.6 3.2 0.00 0.00 0.00 80 1049.2
20260507065054 15 262 1.6 3.2 0.00 0.00 0.00 80 1049.2
20260507064954 15 263 0.0 3.2 0.00 0.00 0.00 81 1049.1
20260507064854 15 264 0.0 3.2 0.00 0.00 0.00 81 1049.1
20260507064821 15 263 0.0 3.2 0.00 0.00 0.00 81 1049.0
20260507064748 15 263 0.0 3.2 0.00 0.00 0.00 82 1049.0
20260507064648 15 263 0.0 3.2 0.00 0.00 0.00 83 1049.0
20260507064548 14 263 0.0 3.2 0.00 0.00 0.00 83 1049.1
20260507064449 14 263 1.6 4.8 0.00 0.00 0.00 83 1049.0
20260507064348 14 263 1.6 6.4 0.00 0.00 0.00 83 1049.0
20260507064320 14 263 1.6 6.4 0.00 0.00 0.00 84 1049.0
20260507064244 14 263 1.6 6.4 0.00 0.00 0.00 84 1049.0
20260507064142 14 263 1.6 6.4 0.00 0.00 0.00 85 1049.0
20260507064058 13 264 1.6 6.4 0.00 0.00 0.00 85 1049.0
20260507064051 13 264 3.2 6.4 0.00 0.00 0.00 85 1048.8
20260507064037 13 263 3.2 9.7 0.00 0.00 0.00 85 1048.8
20260507063740 13 263 3.2 9.7 0.00 0.00 0.00 86 1048.8
20260507063641 13 263 3.2 9.7 0.00 0.00 0.00 86 1049.0
20260507063556 13 263 3.2 9.7 0.00 0.00 0.00 86 1048.8
20260507063548 13 264 3.2 9.7 0.00 0.00 0.00 86 1048.8
20260507063537 13 264 3.2 9.7 0.00 0.00 0.00 87 1048.8
20260507063240 13 263 3.2 9.7 0.00 0.00 0.00 87 1048.8
20260507063138 13 263 4.8 9.7 0.00 0.00 0.00 87 1048.8
20260507063038 13 263 4.8 9.7 0.00 0.00 0.00 87 1048.7
20260507062938 13 264 4.8 9.7 0.00 0.00 0.00 87 1048.7
20260507062818 12 263 4.8 9.7 0.00 0.00 0.00 87 1048.7
20260507062806 12 263 4.8 9.7 0.00 0.00 0.00 87 1048.7
20260507062756 12 263 4.8 11.3 0.00 0.00 0.00 88 1048.7
20260507062434 12 263 6.4 11.3 0.00 0.00 0.00 88 1048.7
20260507062319 12 263 6.4 11.3 0.00 0.00 0.00 88 1048.6
20260507062234 12 263 6.4 11.3 0.00 0.00 0.00 88 1048.7
20260507062132 12 263 6.4 11.3 0.00 0.00 0.00 89 1048.6
20260507062051 12 263 6.4 11.3 0.00 0.00 0.00 89 1048.6
20260507062046 12 263 4.8 11.3 0.00 0.00 0.00 89 1048.6
20260507062021 12 263 4.8 11.3 0.00 0.00 0.00 89 1048.6
20260507061755 12 262 4.8 11.3 0.00 0.00 0.00 90 1048.6
20260507061432 12 256 4.8 6.4 0.00 0.00 0.00 90 1048.5
20260507061331 12 257 4.8 6.4 0.00 0.00 0.00 90 1048.5
20260507061310 11 256 4.8 6.4 0.00 0.00 0.00 90 1048.5
20260507061231 11 256 4.8 6.4 0.00 0.00 0.00 90 1048.5
20260507061132 11 256 4.8 6.4 0.00 0.00 0.00 91 1048.5
20260507061031 11 256 4.8 6.4 0.00 0.00 0.00 91 1048.5
20260507060931 11 256 4.8 6.4 0.00 0.00 0.00 91 1048.5
20260507060855 11 256 4.8 6.4 0.00 0.00 0.00 91 1048.5
20260507060847 11 256 4.8 6.4 0.00 0.00 0.00 91 1048.5
20260507060836 11 256 4.8 6.4 0.00 0.00 0.00 91 1048.5
20260507060829 11 256 4.8 6.4 0.00 0.00 0.00 91 1048.4
20260507060600 11 256 4.8 6.4 0.00 0.00 0.00 91 1048.5
20260507060331 11 256 4.8 6.4 0.00 0.00 0.00 91 1048.5
20260507060320 11 256 3.2 6.4 0.00 0.00 0.00 91 1048.5
20260507060052 11 256 3.2 6.4 0.00 0.00 0.00 91 1048.5
20260507060032 11 256 3.2 6.4 0.00 0.00 0.00 91 1048.5
20260507055722 11 256 3.2 4.8 0.00 0.00 0.00 91 1048.5
20260507055655 10 256 3.2 4.8 0.00 0.00 0.00 92 1048.5
20260507055649 10 256 3.2 4.8 0.00 0.00 0.00 92 1048.5
20260507055314 10 256 3.2 9.7 0.00 0.00 0.00 92 1048.5
20260507055306 10 256 3.2 9.7 0.00 0.00 0.00 92 1048.5
20260507055256 10 256 3.2 9.7 0.00 0.00 0.00 92 1048.5
20260507054916 10 256 3.2 9.7 0.00 0.00 0.00 92 1048.5
20260507054808 10 256 3.2 9.7 0.00 0.00 0.00 92 1048.5
20260507054712 10 256 3.2 9.7 0.00 0.00 0.00 92 1048.5
20260507054610 10 256 4.8 9.7 0.00 0.00 0.00 92 1048.5
20260507054550 10 256 4.8 9.7 0.00 0.00 0.00 92 1048.5
20260507054541 10 256 4.8 9.7 0.00 0.00 0.00 92 1048.4
20260507054311 10 256 4.8 9.7 0.00 0.00 0.00 92 1048.4
20260507054206 10 256 4.8 9.7 0.00 0.00 0.00 92 1048.4
20260507054108 10 256 3.2 9.7 0.00 0.00 0.00 92 1048.4
20260507054054 10 256 3.2 9.7 0.00 0.00 0.00 92 1048.5
20260507054043 10 256 3.2 9.7 0.00 0.00 0.00 92 1048.5
20260507053807 10 256 3.2 9.7 0.00 0.00 0.00 92 1048.5
20260507053705 10 256 3.2 9.7 0.00 0.00 0.00 92 1048.4
20260507053605 10 256 3.2 9.7 0.00 0.00 0.00 92 1048.5
20260507053550 9 256 3.2 9.7 0.00 0.00 0.00 92 1048.5
20260507053538 9 256 3.2 8.0 0.00 0.00 0.00 92 1048.4
20260507053307 9 256 3.2 4.8 0.00 0.00 0.00 92 1048.4
20260507053205 9 256 3.2 4.8 0.00 0.00 0.00 92 1048.4
20260507053107 9 256 3.2 4.8 0.00 0.00 0.00 92 1048.4
20260507053005 9 256 3.2 4.8 0.00 0.00 0.00 92 1048.4
20260507052903 9 256 3.2 6.4 0.00 0.00 0.00 92 1048.4
20260507052817 9 256 3.2 9.7 0.00 0.00 0.00 92 1048.4
20260507052803 9 255 3.2 9.7 0.00 0.00 0.00 92 1048.4
20260507052702 9 256 3.2 9.7 0.00 0.00 0.00 92 1048.4
20260507052602 9 256 3.2 9.7 0.00 0.00 0.00 92 1048.4
20260507052542 9 255 3.2 9.7 0.00 0.00 0.00 92 1048.4
20260507052529 9 255 4.8 9.7 0.00 0.00 0.00 92 1048.4
20260507052517 9 256 4.8 9.7 0.00 0.00 0.00 92 1048.4
20260507052158 9 255 4.8 9.7 0.00 0.00 0.00 92 1048.4
20260507052059 9 255 4.8 9.7 0.00 0.00 0.00 92 1048.4
20260507051959 9 255 3.2 9.7 0.00 0.00 0.00 92 1048.4
20260507051859 8 255 3.2 9.7 0.00 0.00 0.00 92 1048.3
20260507051809 8 256 3.2 8.0 0.00 0.00 0.00 92 1048.3
20260507051756 8 255 3.2 8.0 0.00 0.00 0.00 92 1048.3
20260507051657 8 255 3.2 6.4 0.00 0.00 0.00 92 1048.3
20260507051558 8 255 3.2 6.4 0.00 0.00 0.00 92 1048.3
20260507051520 8 254 3.2 6.4 0.00 0.00 0.00 92 1048.4
20260507051513 8 253 3.2 8.0 0.00 0.00 0.00 92 1048.4
20260507051500 8 253 3.2 8.0 0.00 0.00 0.00 92 1048.3
20260507051449 8 253 3.2 8.0 0.00 0.00 0.00 92 1048.3
20260507051439 8 251 3.2 8.0 0.00 0.00 0.00 92 1048.4
20260507050857 8 251 3.2 8.0 0.00 0.00 0.00 92 1048.2
20260507050816 8 252 4.8 8.0 0.00 0.00 0.00 92 1048.2
20260507050757 8 251 4.8 8.0 0.00 0.00 0.00 92 1048.2
20260507050657 8 251 4.8 8.0 0.00 0.00 0.00 92 1048.2
20260507050557 8 251 3.2 8.0 0.00 0.00 0.00 92 1048.2
20260507050457 8 251 3.2 8.0 0.00 0.00 0.00 92 1048.2
20260507050357 8 251 3.2 8.0 0.00 0.00 0.00 92 1048.2
20260507050305 8 251 3.2 8.0 0.00 0.00 0.00 92 1048.2
20260507050253 8 251 3.2 8.0 0.00 0.00 0.00 92 1048.2
20260507050153 8 251 3.2 8.0 0.00 0.00 0.00 92 1048.2
20260507050053 8 251 3.2 8.0 0.00 0.00 0.00 92 1048.2
20260507045952 8 251 3.2 8.0 0.00 0.00 0.00 92 1048.2
20260507045834 8 251 3.2 8.0 0.00 0.00 0.00 92 1048.2
20260507045827 8 251 3.2 8.0 0.00 0.00 0.00 92 1048.2
20260507045816 8 251 4.8 8.0 0.00 0.00 0.00 92 1048.2
20260507045540 8 251 4.8 8.0 0.00 0.00 0.00 92 1048.2
20260507045527 8 251 4.8 8.0 0.00 0.00 0.00 92 1048.2
20260507045252 8 251 4.8 8.0 0.00 0.00 0.00 92 1048.1
20260507045152 8 251 4.8 8.0 0.00 0.00 0.00 92 1048.1
20260507045053 8 251 4.8 8.0 0.00 0.00 0.00 92 1048.1
20260507044953 8 251 4.8 8.0 0.00 0.00 0.00 92 1048.1
20260507044853 8 251 4.8 8.0 0.00 0.00 0.00 92 1048.2
20260507044806 8 251 4.8 8.0 0.00 0.00 0.00 92 1048.2
20260507044753 8 251 4.8 8.0 0.00 0.00 0.00 92 1048.2
20260507044653 8 251 4.8 8.0 0.00 0.00 0.00 92 1048.1
20260507044550 8 251 4.8 8.0 0.00 0.00 0.00 92 1048.2
20260507044520 8 251 4.8 8.0 0.00 0.00 0.00 92 1048.2
20260507044457 8 251 3.2 6.4 0.00 0.00 0.00 92 1048.2
20260507044450 8 251 3.2 6.4 0.00 0.00 0.00 92 1048.2
20260507044440 8 251 3.2 6.4 0.00 0.00 0.00 92 1048.2
20260507044429 8 251 3.2 4.8 0.00 0.00 0.00 92 1048.2
20260507044154 8 251 3.2 4.8 0.00 0.00 0.00 92 1048.2
20260507043928 8 251 3.2 4.8 0.00 0.00 0.00 92 1048.2
20260507043919 8 251 3.2 4.8 0.00 0.00 0.00 92 1048.2
20260507043908 8 251 3.2 4.8 0.00 0.00 0.00 92 1048.2
20260507043854 8 251 3.2 4.8 0.00 0.00 0.00 92 1048.2
20260507043624 8 251 3.2 6.4 0.00 0.00 0.00 92 1048.2
20260507043045 8 251 3.2 6.4 0.00 0.00 0.00 92 1048.2
20260507042945 8 251 3.2 6.4 0.00 0.00 0.00 92 1048.2
20260507042845 8 251 3.2 6.4 0.00 0.00 0.00 92 1048.2
20260507042805 8 251 3.2 6.4 0.00 0.00 0.00 92 1048.2
20260507042744 8 251 3.2 6.4 0.00 0.00 0.00 92 1048.2
20260507042708 8 251 3.2 6.4 0.00 0.00 0.00 92 1048.2
20260507042701 8 251 3.2 6.4 0.00 0.00 0.00 92 1048.2
20260507042649 8 251 3.2 6.4 0.00 0.00 0.00 92 1048.2
20260507042641 8 251 3.2 6.4 0.00 0.00 0.00 92 1048.2
20260507042409 8 251 3.2 6.4 0.00 0.00 0.00 92 1048.2
20260507042045 8 251 3.2 8.0 0.00 0.00 0.00 92 1048.2
20260507041945 8 251 3.2 8.0 0.00 0.00 0.00 92 1048.2
20260507041845 8 251 3.2 8.0 0.00 0.00 0.00 92 1048.3
20260507041804 8 251 3.2 8.0 0.00 0.00 0.00 92 1048.3
20260507041742 8 251 3.2 8.0 0.00 0.00 0.00 92 1048.2
20260507041641 8 251 3.2 8.0 0.00 0.00 0.00 92 1048.2
20260507041541 8 251 3.2 8.0 0.00 0.00 0.00 92 1048.2
20260507041441 8 251 3.2 8.0 0.00 0.00 0.00 92 1048.2
20260507041340 8 251 3.2 8.0 0.00 0.00 0.00 92 1048.2
20260507041304 8 251 3.2 8.0 0.00 0.00 0.00 92 1048.2
20260507041240 8 251 3.2 8.0 0.00 0.00 0.00 92 1048.3
20260507041141 8 251 3.2 6.4 0.00 0.00 0.00 92 1048.2
20260507041041 8 251 3.2 8.0 0.00 0.00 0.00 92 1048.2
20260507040941 8 251 3.2 8.0 0.00 0.00 0.00 92 1048.2
20260507040841 8 251 3.2 8.0 0.00 0.00 0.00 92 1048.2
20260507040803 8 251 3.2 8.0 0.00 0.00 0.00 92 1048.2
20260507040741 8 251 3.2 8.0 0.00 0.00 0.00 92 1048.2
20260507040641 8 251 3.2 8.0 0.00 0.00 0.00 92 1048.2
20260507040541 8 251 3.2 8.0 0.00 0.00 0.00 92 1048.2
20260507040441 8 251 3.2 8.0 0.00 0.00 0.00 92 1048.2
20260507040340 8 251 3.2 8.0 0.00 0.00 0.00 92 1048.2
20260507040322 8 251 4.8 8.0 0.00 0.00 0.00 92 1048.2
20260507040312 8 251 4.8 8.0 0.00 0.00 0.00 92 1048.2
20260507040304 8 251 4.8 8.0 0.00 0.00 0.00 92 1048.2
20260507040256 8 251 3.2 6.4 0.00 0.00 0.00 92 1048.2
20260507040247 8 251 3.2 6.4 0.00 0.00 0.00 92 1048.2
20260507035740 8 251 3.2 6.4 0.00 0.00 0.00 91 1048.2
20260507035640 8 251 3.2 6.4 0.00 0.00 0.00 91 1048.3
20260507035601 8 251 3.2 6.4 0.00 0.00 0.00 91 1048.2
20260507035550 8 251 3.2 6.4 0.00 0.00 0.00 91 1048.2
20260507035539 8 251 3.2 6.4 0.00 0.00 0.00 91 1048.2
20260507035310 8 251 3.2 6.4 0.00 0.00 0.00 91 1048.3
20260507035305 8 251 3.2 6.4 0.00 0.00 0.00 91 1048.3
20260507035249 8 251 4.8 6.4 0.00 0.00 0.00 91 1048.2
20260507035239 8 252 4.8 8.0 0.00 0.00 0.00 91 1048.2
20260507035231 8 251 4.8 8.0 0.00 0.00 0.00 91 1048.2
20260507034642 9 251 4.8 8.0 0.00 0.00 0.00 91 1048.3
20260507034541 9 251 4.8 8.0 0.00 0.00 0.00 91 1048.2
20260507034445 9 251 4.8 8.0 0.00 0.00 0.00 91 1048.3
20260507034341 9 251 4.8 8.0 0.00 0.00 0.00 91 1048.3
20260507034306 9 251 4.8 8.0 0.00 0.00 0.00 91 1048.3
20260507034243 9 251 4.8 8.0 0.00 0.00 0.00 91 1048.3
20260507034226 9 251 3.2 8.0 0.00 0.00 0.00 91 1048.3
20260507034215 9 251 3.2 8.0 0.00 0.00 0.00 91 1048.2
20260507033932 9 251 3.2 6.4 0.00 0.00 0.00 91 1048.3
20260507033925 9 251 3.2 6.4 0.00 0.00 0.00 91 1048.3
20260507033914 9 251 3.2 6.4 0.00 0.00 0.00 91 1048.2
20260507033905 9 251 3.2 6.4 0.00 0.00 0.00 91 1048.2
20260507033855 9 251 3.2 6.4 0.00 0.00 0.00 91 1048.3
20260507033843 9 251 3.2 6.4 0.00 0.00 0.00 91 1048.3
20260507033611 9 251 3.2 6.4 0.00 0.00 0.00 91 1048.2
20260507033341 9 251 4.8 6.4 0.00 0.00 0.00 91 1048.3
20260507033053 9 251 3.2 6.4 0.00 0.00 0.00 91 1048.3
20260507033046 9 251 3.2 6.4 0.00 0.00 0.00 91 1048.3
20260507033038 9 251 3.2 6.4 0.00 0.00 0.00 91 1048.3
20260507033029 9 251 3.2 6.4 0.00 0.00 0.00 91 1048.3
20260507032751 9 251 4.8 6.4 0.00 0.00 0.00 91 1048.4
20260507032258 9 251 3.2 6.4 0.00 0.00 0.00 91 1048.3
20260507031937 9 251 3.2 6.4 0.00 0.00 0.00 91 1048.4
20260507031836 9 251 3.2 6.4 0.00 0.00 0.00 91 1048.4
20260507031803 9 251 3.2 6.4 0.00 0.00 0.00 91 1048.4
20260507031740 9 251 3.2 6.4 0.00 0.00 0.00 91 1048.4
20260507031636 9 251 3.2 6.4 0.00 0.00 0.00 91 1048.4
20260507031536 9 251 3.2 6.4 0.00 0.00 0.00 91 1048.4
20260507031436 9 251 3.2 6.4 0.00 0.00 0.00 91 1048.4
20260507031337 9 251 3.2 6.4 0.00 0.00 0.00 91 1048.3
20260507031304 9 251 3.2 6.4 0.00 0.00 0.00 91 1048.3
20260507031237 9 251 3.2 6.4 0.00 0.00 0.00 91 1048.3
20260507031136 9 251 3.2 6.4 0.00 0.00 0.00 92 1048.4
20260507031033 9 251 3.2 6.4 0.00 0.00 0.00 92 1048.4
20260507031002 9 251 3.2 6.4 0.00 0.00 0.00 92 1048.3
20260507030943 9 251 3.2 6.4 0.00 0.00 0.00 92 1048.3
20260507030932 9 251 3.2 6.4 0.00 0.00 0.00 92 1048.3
20260507030924 9 251 3.2 6.4 0.00 0.00 0.00 92 1048.3
20260507030916 9 251 3.2 6.4 0.00 0.00 0.00 92 1048.3
20260507030427 9 251 3.2 6.4 0.00 0.00 0.00 92 1048.4
20260507030416 9 251 3.2 6.4 0.00 0.00 0.00 92 1048.4
20260507030404 9 251 3.2 6.4 0.00 0.00 0.00 92 1048.3
20260507030136 9 251 3.2 6.4 0.00 0.00 0.00 92 1048.4
20260507030117 9 251 3.2 6.4 0.00 0.00 0.00 92 1048.3
20260507025849 9 251 3.2 8.0 0.00 0.00 0.00 92 1048.4
20260507025840 9 251 4.8 8.0 0.00 0.00 0.00 92 1048.4
20260507025829 9 251 4.8 8.0 0.00 0.00 0.00 92 1048.3
20260507025601 9 252 4.8 8.0 0.00 0.00 0.00 92 1048.4
20260507025020 9 251 4.8 8.0 0.00 0.00 0.00 92 1048.3
20260507024915 9 251 4.8 8.0 0.00 0.00 0.00 92 1048.4
20260507024805 9 251 4.8 11.3 0.00 0.00 0.00 92 1048.4
20260507024715 9 251 4.8 11.3 0.00 0.00 0.00 92 1048.4
20260507024615 9 251 4.8 11.3 0.00 0.00 0.00 92 1048.4
20260507024515 8 251 4.8 11.3 0.00 0.00 0.00 92 1048.4
20260507024414 8 251 4.8 11.3 0.00 0.00 0.00 92 1048.3
20260507024305 8 251 4.8 11.3 0.00 0.00 0.00 92 1048.3
20260507024212 8 251 4.8 11.3 0.00 0.00 0.00 92 1048.3
20260507024112 8 251 4.8 11.3 0.00 0.00 0.00 92 1048.3
20260507024011 8 251 4.8 11.3 0.00 0.00 0.00 92 1048.3
20260507023911 8 251 6.4 11.3 0.00 0.00 0.00 92 1048.3
20260507023818 8 251 4.8 11.3 0.00 0.00 0.00 92 1048.3
20260507023809 8 250 4.8 11.3 0.00 0.00 0.00 92 1048.3
20260507023745 8 250 4.8 11.3 0.00 0.00 0.00 92 1048.3
20260507023739 8 251 4.8 11.3 0.00 0.00 0.00 92 1048.3
20260507023408 8 250 4.8 11.3 0.00 0.00 0.00 92 1048.3
20260507023305 8 249 4.8 11.3 0.00 0.00 0.00 92 1048.3
20260507023209 8 245 4.8 11.3 0.00 0.00 0.00 92 1048.2
20260507023108 8 245 4.8 8.0 0.00 0.00 0.00 92 1048.2
20260507023008 8 245 4.8 8.0 0.00 0.00 0.00 91 1048.2
20260507022908 8 245 4.8 8.0 0.00 0.00 0.00 91 1048.2
20260507022805 8 245 4.8 8.0 0.00 0.00 0.00 91 1048.2
20260507022708 8 245 4.8 8.0 0.00 0.00 0.00 92 1048.2
20260507022641 8 244 4.8 8.0 0.00 0.00 0.00 92 1048.2
20260507022632 8 244 4.8 8.0 0.00 0.00 0.00 92 1048.1
20260507022307 8 244 4.8 8.0 0.00 0.00 0.00 92 1048.1
20260507022209 8 244 4.8 8.0 0.00 0.00 0.00 91 1048.2
20260507022106 8 244 4.8 8.0 0.00 0.00 0.00 92 1048.1
20260507022006 8 244 4.8 8.0 0.00 0.00 0.00 91 1048.1
20260507021905 8 244 4.8 8.0 0.00 0.00 0.00 91 1048.2
20260507021805 8 244 4.8 8.0 0.00 0.00 0.00 91 1048.1
20260507021705 8 243 4.8 8.0 0.00 0.00 0.00 91 1048.1
20260507021607 8 244 4.8 8.0 0.00 0.00 0.00 91 1048.1
20260507021504 8 244 4.8 8.0 0.00 0.00 0.00 91 1048.1
20260507021445 8 244 3.2 8.0 0.00 0.00 0.00 91 1048.1
20260507021435 8 244 3.2 8.0 0.00 0.00 0.00 91 1048.1
20260507021427 8 243 3.2 8.0 0.00 0.00 0.00 91 1048.1
20260507021105 8 243 3.2 8.0 0.00 0.00 0.00 91 1048.2
20260507021005 8 243 3.2 8.0 0.00 0.00 0.00 91 1048.1
20260507020904 8 243 3.2 8.0 0.00 0.00 0.00 91 1048.1
20260507020809 8 243 3.2 6.4 0.00 0.00 0.00 91 1048.1
20260507020704 8 243 3.2 6.4 0.00 0.00 0.00 91 1048.1
20260507020604 8 244 3.2 6.4 0.00 0.00 0.00 91 1048.2
20260507020506 8 243 3.2 6.4 0.00 0.00 0.00 91 1048.1
20260507020405 8 245 3.2 6.4 0.00 0.00 0.00 91 1048.2
20260507020346 8 244 3.2 6.4 0.00 0.00 0.00 91 1048.2
20260507020336 8 243 3.2 6.4 0.00 0.00 0.00 91 1048.2
20260507020323 8 243 3.2 6.4 0.00 0.00 0.00 91 1048.2
20260507020054 8 243 4.8 6.4 0.00 0.00 0.00 91 1048.2
20260507020039 8 244 4.8 6.4 0.00 0.00 0.00 91 1048.2
20260507015809 8 243 4.8 11.3 0.00 0.00 0.00 91 1048.3
20260507015803 8 244 4.8 11.3 0.00 0.00 0.00 91 1048.3
20260507015752 8 243 4.8 11.3 0.00 0.00 0.00 91 1048.3
20260507015746 8 243 4.8 11.3 0.00 0.00 0.00 91 1048.3
20260507015239 8 244 4.8 11.3 0.00 0.00 0.00 91 1048.3
20260507015224 8 243 4.8 11.3 0.00 0.00 0.00 91 1048.3
20260507014904 8 244 4.8 11.3 0.00 0.00 0.00 91 1048.3
20260507014806 8 243 4.8 11.3 0.00 0.00 0.00 91 1048.3
20260507014703 8 243 4.8 11.3 0.00 0.00 0.00 91 1048.3
20260507014625 8 243 4.8 11.3 0.00 0.00 0.00 91 1048.4
20260507014619 8 243 4.8 11.3 0.00 0.00 0.00 91 1048.4
20260507014606 8 243 4.8 11.3 0.00 0.00 0.00 91 1048.3
20260507014550 8 243 4.8 11.3 0.00 0.00 0.00 91 1048.4
20260507014004 8 243 4.8 8.0 0.00 0.00 0.00 91 1048.4
20260507013946 8 243 4.8 8.0 0.00 0.00 0.00 91 1048.4
20260507013930 8 243 4.8 8.0 0.00 0.00 0.00 91 1048.4
20260507013604 8 243 4.8 8.0 0.00 0.00 0.00 91 1048.4
20260507013503 8 243 4.8 8.0 0.00 0.00 0.00 91 1048.4
20260507013340 8 243 4.8 8.0 0.00 0.00 0.00 91 1048.4
20260507013334 8 243 4.8 8.0 0.00 0.00 0.00 91 1048.4
20260507013323 8 242 4.8 8.0 0.00 0.00 0.00 91 1048.3
20260507013000 8 242 4.8 8.0 0.00 0.00 0.00 91 1048.4
20260507012854 8 241 4.8 8.0 0.00 0.00 0.00 91 1048.4
20260507012805 8 242 4.8 8.0 0.00 0.00 0.00 91 1048.4
20260507012754 8 242 4.8 8.0 0.00 0.00 0.00 91 1048.4
20260507012653 8 241 4.8 6.4 0.00 0.00 0.00 91 1048.4
20260507012555 8 242 3.2 6.4 0.00 0.00 0.00 91 1048.4
20260507012547 8 242 3.2 6.4 0.00 0.00 0.00 91 1048.4
20260507012531 8 242 3.2 6.4 0.00 0.00 0.00 91 1048.4
20260507012306 8 242 3.2 6.4 0.00 0.00 0.00 91 1048.4
20260507012256 8 241 3.2 11.3 0.00 0.00 0.00 91 1048.4
20260507012245 8 242 3.2 11.3 0.00 0.00 0.00 91 1048.3
20260507012002 8 242 4.8 11.3 0.00 0.00 0.00 91 1048.3
20260507011650 8 241 4.8 11.3 0.00 0.00 0.00 91 1048.3
20260507011544 8 242 4.8 11.3 0.00 0.00 0.00 91 1048.3
20260507011526 8 241 4.8 11.3 0.00 0.00 0.00 91 1048.3
20260507011518 8 241 4.8 11.3 0.00 0.00 0.00 91 1048.3
20260507011506 8 241 4.8 11.3 0.00 0.00 0.00 91 1048.3
20260507011021 8 241 4.8 8.0 0.00 0.00 0.00 91 1048.3
20260507011006 8 241 4.8 8.0 0.00 0.00 0.00 91 1048.3
20260507010642 8 241 4.8 8.0 0.00 0.00 0.00 91 1048.3
20260507010542 8 241 4.8 8.0 0.00 0.00 0.00 91 1048.3
20260507010534 8 241 4.8 6.4 0.00 0.00 0.00 91 1048.3
20260507010526 8 241 4.8 8.0 0.00 0.00 0.00 91 1048.3
20260507010515 8 241 4.8 8.0 0.00 0.00 0.00 91 1048.3
20260507010507 8 241 4.8 8.0 0.00 0.00 0.00 91 1048.4
20260507010456 8 241 4.8 8.0 0.00 0.00 0.00 91 1048.4
20260507010228 8 241 4.8 8.0 0.00 0.00 0.00 91 1048.4
20260507010221 8 241 4.8 8.0 0.00 0.00 0.00 91 1048.4
20260507005632 8 241 3.2 8.0 0.00 0.00 0.00 91 1048.5
20260507005532 8 241 3.2 8.0 0.00 0.00 0.00 91 1048.5
20260507005431 9 240 3.2 8.0 0.00 0.00 0.00 91 1048.4
20260507005333 9 241 3.2 6.4 0.00 0.00 0.00 91 1048.5
20260507005231 9 240 3.2 6.4 0.00 0.00 0.00 91 1048.5
20260507005133 9 240 3.2 6.4 0.00 0.00 0.00 91 1048.5
20260507005032 9 241 3.2 6.4 0.00 0.00 0.00 91 1048.5
20260507004931 9 240 3.2 6.4 0.00 0.00 0.00 91 1048.5
20260507004832 9 240 3.2 6.4 0.00 0.00 0.00 91 1048.5
20260507004732 9 240 3.2 6.4 0.00 0.00 0.00 91 1048.5
20260507004641 9 241 3.2 6.4 0.00 0.00 0.00 91 1048.5
20260507004619 9 240 3.2 6.4 0.00 0.00 0.00 91 1048.6
20260507004612 9 241 3.2 6.4 0.00 0.00 0.00 91 1048.6
20260507004603 9 240 3.2 6.4 0.00 0.00 0.00 91 1048.6
20260507004542 9 240 3.2 8.0 0.00 0.00 0.00 91 1048.6
20260507004532 9 241 3.2 8.0 0.00 0.00 0.00 91 1048.6
20260507004526 9 241 3.2 8.0 0.00 0.00 0.00 91 1048.6
20260507004516 9 240 3.2 8.0 0.00 0.00 0.00 91 1048.6
20260507004508 9 241 3.2 8.0 0.00 0.00 0.00 91 1048.6
20260507004236 9 241 3.2 8.0 0.00 0.00 0.00 91 1048.6
20260507004225 9 241 3.2 8.0 0.00 0.00 0.00 91 1048.6
20260507004208 9 241 3.2 8.0 0.00 0.00 0.00 91 1048.6
20260507004201 9 240 4.8 8.0 0.00 0.00 0.00 91 1048.6
20260507003933 9 239 3.2 8.0 0.00 0.00 0.00 91 1048.6
20260507003006 9 239 4.8 8.0 0.00 0.00 0.00 91 1048.6
20260507002953 9 239 4.8 8.0 0.00 0.00 0.00 91 1048.6
20260507002632 9 239 4.8 8.0 0.00 0.00 0.00 91 1048.6
20260507002532 9 240 4.8 6.4 0.00 0.00 0.00 90 1048.6
20260507002510 9 239 4.8 6.4 0.00 0.00 0.00 90 1048.6
20260507002501 9 240 4.8 6.4 0.00 0.00 0.00 90 1048.6
20260507002451 9 240 4.8 6.4 0.00 0.00 0.00 91 1048.6
20260507002131 9 240 4.8 6.4 0.00 0.00 0.00 91 1048.6
20260507002036 9 239 3.2 6.4 0.00 0.00 0.00 91 1048.6
20260507001931 9 239 3.2 6.4 0.00 0.00 0.00 91 1048.6
20260507001837 9 240 3.2 6.4 0.00 0.00 0.00 91 1048.6
20260507001823 9 239 3.2 6.4 0.00 0.00 0.00 91 1048.6
20260507001816 9 240 3.2 6.4 0.00 0.00 0.00 91 1048.6
20260507001808 9 241 1.6 6.4 0.00 0.00 0.00 91 1048.6
20260507001432 9 239 1.6 6.4 0.00 0.00 0.00 91 1048.7
20260507001331 9 239 1.6 6.4 0.00 0.00 0.00 91 1048.7
20260507001250 9 239 1.6 6.4 0.00 0.00 0.00 91 1048.7
20260507001230 9 240 1.6 6.4 0.00 0.00 0.00 91 1048.7
20260507001129 9 239 1.6 4.8 0.00 0.00 0.00 91 1048.7
20260507001053 9 239 1.6 4.8 0.00 0.00 0.00 91 1048.7
20260507001044 9 240 1.6 6.4 0.00 0.00 0.00 91 1048.7
20260507001033 9 239 3.2 6.4 0.00 0.00 0.00 91 1048.7
20260507001018 9 240 3.2 8.0 0.00 0.00 0.00 91 1048.7
20260507000754 9 239 3.2 8.0 0.00 0.00 0.00 91 1048.7
20260507000428 9 242 4.8 8.0 0.00 0.00 0.00 91 1048.7
20260507000329 9 239 4.8 8.0 0.00 0.00 0.00 91 1048.6
20260507000309 9 239 4.8 8.0 0.00 0.00 0.00 91 1048.6
20260507000302 9 240 4.8 8.0 0.00 0.00 0.00 91 1048.6
20260507000251 9 240 4.8 8.0 0.00 0.00 0.00 91 1048.7
20260506235940 9 239 4.8 8.0 0.00 0.00 0.00 91 1048.6
20260506235933 9 239 3.2 8.0 0.00 0.00 0.00 91 1048.7
20260506235923 9 240 3.2 6.4 0.00 0.00 0.00 91 1048.6
20260506235910 9 239 3.2 6.4 0.00 0.00 0.00 91 1048.6
20260506235901 9 239 3.2 6.4 0.00 0.00 0.00 91 1048.7
20260506235319 9 239 3.2 6.4 0.00 0.00 0.00 91 1048.7
20260506235219 9 239 3.2 6.4 0.00 0.00 0.00 91 1048.7
20260506235119 9 239 3.2 6.4 0.00 0.00 0.00 91 1048.7
20260506235019 9 240 3.2 6.4 0.00 0.00 0.00 91 1048.7
20260506235012 9 239 3.2 6.4 0.00 0.00 0.00 91 1048.7
20260506234956 9 240 3.2 6.4 0.00 0.00 0.00 91 1048.7
20260506234709 9 239 3.2 6.4 0.00 0.00 0.00 91 1048.7
20260506234609 9 239 3.2 6.4 0.00 0.00 0.00 91 1048.7
20260506234550 9 239 3.2 6.4 0.00 0.00 0.00 91 1048.7
20260506234542 9 240 3.2 6.4 0.00 0.00 0.00 91 1048.7
20260506234529 9 239 3.2 4.8 0.00 0.00 0.00 91 1048.7
20260506234505 9 239 3.2 4.8 0.00 0.00 0.00 91 1048.7
20260506234237 9 239 3.2 4.8 0.00 0.00 0.00 91 1048.7
20260506234229 9 240 3.2 4.8 0.00 0.00 0.00 91 1048.7
20260506234001 9 239 3.2 4.8 0.00 0.00 0.00 91 1048.7
20260506233706 9 239 3.2 4.8 0.00 0.00 0.00 91 1048.7
20260506233607 9 239 3.2 4.8 0.00 0.00 0.00 91 1048.8
20260506233505 9 239 3.2 6.4 0.00 0.00 0.00 91 1048.7
20260506233406 9 239 3.2 6.4 0.00 0.00 0.00 91 1048.7
20260506233305 9 239 4.8 6.4 0.00 0.00 0.00 91 1048.7
20260506233236 9 239 4.8 6.4 0.00 0.00 0.00 91 1048.7
20260506233205 9 239 4.8 6.4 0.00 0.00 0.00 91 1048.7
20260506233106 9 239 4.8 6.4 0.00 0.00 0.00 91 1048.7
20260506233053 9 239 4.8 6.4 0.00 0.00 0.00 90 1048.7
20260506233044 9 239 4.8 6.4 0.00 0.00 0.00 90 1048.7
20260506233037 9 239 4.8 6.4 0.00 0.00 0.00 90 1048.7
20260506233017 9 239 4.8 6.4 0.00 0.00 0.00 90 1048.8
20260506232740 9 239 3.2 6.4 0.00 0.00 0.00 90 1048.8
20260506232235 9 239 3.2 6.4 0.00 0.00 0.00 90 1048.8
20260506232203 9 239 3.2 6.4 0.00 0.00 0.00 90 1048.8
20260506232105 9 239 3.2 6.4 0.00 0.00 0.00 90 1048.8
20260506232037 9 239 3.2 6.4 0.00 0.00 0.00 90 1048.8
20260506232030 9 239 3.2 6.4 0.00 0.00 0.00 90 1048.8
20260506231736 9 239 3.2 6.4 0.00 0.00 0.00 90 1048.8
20260506231704 9 239 3.2 6.4 0.00 0.00 0.00 90 1048.8
20260506231604 9 239 3.2 6.4 0.00 0.00 0.00 90 1048.8
20260506231508 9 239 4.8 6.4 0.00 0.00 0.00 90 1048.8
20260506231444 9 239 4.8 6.4 0.00 0.00 0.00 90 1048.8
20260506231422 9 239 4.8 6.4 0.00 0.00 0.00 90 1048.8
20260506231100 9 239 4.8 6.4 0.00 0.00 0.00 91 1048.8
20260506230959 9 240 4.8 6.4 0.00 0.00 0.00 90 1048.8
20260506230854 9 239 4.8 6.4 0.00 0.00 0.00 90 1048.8
20260506230802 9 239 4.8 6.4 0.00 0.00 0.00 90 1048.8
20260506230751 9 239 4.8 6.4 0.00 0.00 0.00 90 1048.8
20260506230738 9 240 4.8 6.4 0.00 0.00 0.00 90 1048.8
20260506230512 9 239 4.8 6.4 0.00 0.00 0.00 90 1048.7
20260506230236 10 239 4.8 6.4 0.00 0.00 0.00 90 1048.7
20260506230148 9 239 4.8 6.4 0.00 0.00 0.00 90 1048.7
20260506230049 9 239 4.8 6.4 0.00 0.00 0.00 90 1048.7
20260506225950 9 239 4.8 6.4 0.00 0.00 0.00 90 1048.7
20260506225841 9 239 4.8 6.4 0.00 0.00 0.00 90 1048.8
20260506225736 9 239 4.8 6.4 0.00 0.00 0.00 90 1048.7
20260506225641 9 239 4.8 6.4 0.00 0.00 0.00 90 1048.7
20260506225541 9 239 4.8 6.4 0.00 0.00 0.00 90 1048.7
20260506225451 9 239 4.8 6.4 0.00 0.00 0.00 90 1048.7
20260506225443 9 239 4.8 6.4 0.00 0.00 0.00 90 1048.7
20260506225425 9 239 4.8 6.4 0.00 0.00 0.00 90 1048.7
20260506225157 9 239 4.8 6.4 0.00 0.00 0.00 90 1048.7
20260506224834 9 239 4.8 6.4 0.00 0.00 0.00 90 1048.7
20260506224735 9 239 4.8 6.4 0.00 0.00 0.00 90 1048.7
20260506224631 9 239 4.8 6.4 0.00 0.00 0.00 90 1048.7
20260506224531 9 239 4.8 6.4 0.00 0.00 0.00 90 1048.7
20260506224441 9 239 4.8 6.4 0.00 0.00 0.00 90 1048.7
20260506224331 9 239 4.8 6.4 0.00 0.00 0.00 90 1048.7
20260506224234 9 239 4.8 6.4 0.00 0.00 0.00 90 1048.7
20260506224131 9 239 4.8 6.4 0.00 0.00 0.00 90 1048.6
20260506224103 9 239 4.8 6.4 0.00 0.00 0.00 90 1048.7
20260506224055 9 239 4.8 6.4 0.00 0.00 0.00 90 1048.6
20260506223735 9 239 4.8 6.4 0.00 0.00 0.00 90 1048.6
20260506223707 9 239 4.8 6.4 0.00 0.00 0.00 90 1048.7
20260506223658 9 239 3.2 6.4 0.00 0.00 0.00 90 1048.7
20260506223643 9 239 3.2 6.4 0.00 0.00 0.00 90 1048.7
20260506223635 9 239 3.2 6.4 0.00 0.00 0.00 90 1048.7
20260506223625 9 239 3.2 6.4 0.00 0.00 0.00 90 1048.7
20260506223354 9 239 3.2 6.4 0.00 0.00 0.00 90 1048.7
20260506223347 9 239 3.2 6.4 0.00 0.00 0.00 90 1048.7
20260506223339 9 239 3.2 6.4 0.00 0.00 0.00 90 1048.7
20260506223327 9 239 4.8 6.4 0.00 0.00 0.00 89 1048.6
20260506223308 9 239 4.8 6.4 0.00 0.00 0.00 89 1048.7
20260506223300 10 239 4.8 6.4 0.00 0.00 0.00 89 1048.7
20260506223038 10 239 4.8 6.4 0.00 0.00 0.00 89 1048.7
20260506223030 10 239 4.8 6.4 0.00 0.00 0.00 89 1048.7
20260506222753 10 239 4.8 6.4 0.00 0.00 0.00 89 1048.7
20260506221725 10 239 4.8 8.0 0.00 0.00 0.00 90 1048.7
20260506221631 10 239 4.8 8.0 0.00 0.00 0.00 90 1048.7
20260506221532 10 239 4.8 8.0 0.00 0.00 0.00 89 1048.7
20260506221431 10 239 4.8 8.0 0.00 0.00 0.00 89 1048.6
20260506221341 10 239 4.8 8.0 0.00 0.00 0.00 89 1048.7
20260506221322 10 239 4.8 8.0 0.00 0.00 0.00 89 1048.7
20260506221312 10 239 4.8 8.0 0.00 0.00 0.00 89 1048.7
20260506221306 10 239 4.8 8.0 0.00 0.00 0.00 89 1048.7
20260506221259 10 239 4.8 8.0 0.00 0.00 0.00 89 1048.7
20260506221249 10 239 4.8 8.0 0.00 0.00 0.00 89 1048.7
20260506220753 10 239 4.8 8.0 0.00 0.00 0.00 89 1048.6
20260506220745 10 239 4.8 8.0 0.00 0.00 0.00 89 1048.7
20260506220733 10 239 4.8 6.4 0.00 0.00 0.00 89 1048.6
20260506220451 10 239 4.8 6.4 0.00 0.00 0.00 89 1048.7
20260506220227 10 239 4.8 6.4 0.00 0.00 0.00 89 1048.7
20260506215959 10 239 4.8 6.4 0.00 0.00 0.00 89 1048.6
20260506215938 10 239 4.8 6.4 0.00 0.00 0.00 89 1048.6
20260506215630 10 239 4.8 6.4 0.00 0.00 0.00 89 1048.6
20260506215530 10 239 4.8 6.4 0.00 0.00 0.00 89 1048.6
20260506215430 10 239 4.8 6.4 0.00 0.00 0.00 89 1048.5
20260506215330 10 239 4.8 6.4 0.00 0.00 0.00 89 1048.6
20260506215222 10 239 4.8 6.4 0.00 0.00 0.00 89 1048.5
20260506215159 10 239 4.8 6.4 0.00 0.00 0.00 89 1048.5
20260506215153 10 239 4.8 6.4 0.00 0.00 0.00 89 1048.6
20260506214828 10 239 4.8 6.4 0.00 0.00 0.00 89 1048.6
20260506214725 10 239 4.8 6.4 0.00 0.00 0.00 89 1048.6
20260506214711 10 239 4.8 6.4 0.00 0.00 0.00 89 1048.6
20260506214703 10 239 4.8 6.4 0.00 0.00 0.00 89 1048.6
20260506214652 10 238 4.8 6.4 0.00 0.00 0.00 89 1048.6
20260506214638 10 238 4.8 6.4 0.00 0.00 0.00 89 1048.5
20260506214413 10 238 4.8 6.4 0.00 0.00 0.00 89 1048.6
20260506214341 10 238 4.8 6.4 0.00 0.00 0.00 88 1048.6
20260506214334 10 237 4.8 6.4 0.00 0.00 0.00 88 1048.5
20260506214105 10 237 4.8 6.4 0.00 0.00 0.00 88 1048.5
20260506213841 10 237 4.8 6.4 0.00 0.00 0.00 88 1048.5
20260506213518 10 237 4.8 6.4 0.00 0.00 0.00 88 1048.5
20260506213502 10 236 4.8 6.4 0.00 0.00 0.00 88 1048.5
20260506213449 10 237 4.8 6.4 0.00 0.00 0.00 88 1048.5
20260506213221 10 237 3.2 6.4 0.00 0.00 0.00 88 1048.5
20260506213118 10 237 3.2 6.4 0.00 0.00 0.00 88 1048.5
20260506213018 10 237 3.2 6.4 0.00 0.00 0.00 88 1048.5
20260506212917 10 237 3.2 6.4 0.00 0.00 0.00 88 1048.6
20260506212818 10 237 3.2 4.8 0.00 0.00 0.00 88 1048.5
20260506212720 10 237 3.2 4.8 0.00 0.00 0.00 88 1048.5
20260506212618 10 236 3.2 4.8 0.00 0.00 0.00 88 1048.5
20260506212517 10 237 3.2 4.8 0.00 0.00 0.00 87 1048.5
20260506212412 10 237 3.2 4.8 0.00 0.00 0.00 87 1048.5
20260506212315 10 237 3.2 4.8 0.00 0.00 0.00 87 1048.5
20260506212212 10 237 3.2 4.8 0.00 0.00 0.00 87 1048.5
20260506212112 10 237 3.2 4.8 0.00 0.00 0.00 87 1048.5
20260506212012 10 237 3.2 4.8 0.00 0.00 0.00 87 1048.5
20260506211912 10 237 3.2 4.8 0.00 0.00 0.00 87 1048.5
20260506211855 10 237 3.2 4.8 0.00 0.00 0.00 87 1048.5
20260506211837 10 237 3.2 4.8 0.00 0.00 0.00 87 1048.5
20260506211558 10 237 3.2 4.8 0.00 0.00 0.00 87 1048.4
20260506211550 10 237 3.2 4.8 0.00 0.00 0.00 87 1048.4
20260506211258 10 237 3.2 4.8 0.00 0.00 0.00 87 1048.5
20260506211250 10 237 3.2 4.8 0.00 0.00 0.00 87 1048.5
20260506210912 10 237 3.2 4.8 0.00 0.00 0.00 87 1048.5
20260506210812 10 237 3.2 4.8 0.00 0.00 0.00 87 1048.4
20260506210712 10 237 3.2 4.8 0.00 0.00 0.00 87 1048.4
20260506210612 10 237 3.2 6.4 0.00 0.00 0.00 86 1048.4
20260506210512 10 237 3.2 6.4 0.00 0.00 0.00 86 1048.4
20260506210412 10 237 3.2 6.4 0.00 0.00 0.00 86 1048.4
20260506210312 10 237 3.2 6.4 0.00 0.00 0.00 86 1048.4
20260506210212 10 237 3.2 6.4 0.00 0.00 0.00 86 1048.3
20260506210112 10 237 3.2 6.4 0.00 0.00 0.00 86 1048.4
20260506210012 10 237 3.2 6.4 0.00 0.00 0.00 86 1048.3
20260506205940 11 237 3.2 6.4 0.00 0.00 0.00 86 1048.3
20260506205931 11 237 3.2 6.4 0.00 0.00 0.00 86 1048.4
20260506205910 11 237 3.2 6.4 0.00 0.00 0.00 86 1048.3
20260506205637 11 237 3.2 4.8 0.00 0.00 0.00 86 1048.3
20260506205349 11 237 3.2 4.8 0.00 0.00 0.00 86 1048.3
20260506205330 11 237 4.8 4.8 0.00 0.00 0.00 86 1048.3
20260506205008 11 237 4.8 4.8 0.00 0.00 0.00 85 1048.2
20260506204908 11 236 4.8 4.8 0.00 0.00 0.00 86 1048.2
20260506204852 11 237 4.8 4.8 0.00 0.00 0.00 86 1048.2
20260506204835 11 237 3.2 6.4 0.00 0.00 0.00 86 1048.2
20260506204549 11 237 3.2 6.4 0.00 0.00 0.00 86 1048.2
20260506204540 11 237 3.2 6.4 0.00 0.00 0.00 86 1048.2
20260506204533 11 237 3.2 6.4 0.00 0.00 0.00 85 1048.1
20260506204513 11 236 3.2 6.4 0.00 0.00 0.00 85 1048.1
20260506204244 11 237 3.2 6.4 0.00 0.00 0.00 85 1048.1
20260506203953 11 237 3.2 6.4 0.00 0.00 0.00 85 1048.0
20260506203943 11 237 3.2 6.4 0.00 0.00 0.00 85 1048.1
20260506203925 11 237 3.2 6.4 0.00 0.00 0.00 85 1048.1
20260506203623 11 237 3.2 6.4 0.00 0.00 0.00 84 1048.0
20260506203616 11 237 3.2 6.4 0.00 0.00 0.00 85 1048.0
20260506203602 11 237 3.2 6.4 0.00 0.00 0.00 84 1048.0
20260506203550 11 237 3.2 6.4 0.00 0.00 0.00 84 1048.0
20260506203318 11 237 3.2 4.8 0.00 0.00 0.00 84 1048.0
20260506203309 11 237 3.2 4.8 0.00 0.00 0.00 84 1048.0
20260506203035 11 237 3.2 4.8 0.00 0.00 0.00 84 1048.0
20260506202709 11 237 3.2 4.8 0.00 0.00 0.00 84 1047.9
20260506202608 11 237 3.2 4.8 0.00 0.00 0.00 84 1047.9
20260506202541 11 236 3.2 4.8 0.00 0.00 0.00 83 1047.9
20260506202533 11 237 3.2 4.8 0.00 0.00 0.00 83 1047.8
20260506202208 11 237 3.2 4.8 0.00 0.00 0.00 83 1047.9
20260506202108 11 237 1.6 4.8 0.00 0.00 0.00 83 1047.9
20260506202008 11 237 1.6 4.8 0.00 0.00 0.00 83 1047.8
20260506201952 11 237 1.6 4.8 0.00 0.00 0.00 83 1047.8
20260506201942 12 237 1.6 4.8 0.00 0.00 0.00 83 1047.7
20260506201704 12 237 1.6 3.2 0.00 0.00 0.00 82 1047.7
20260506201605 12 237 0.0 3.2 0.00 0.00 0.00 82 1047.7
20260506201504 12 236 0.0 3.2 0.00 0.00 0.00 82 1047.7
20260506201404 12 237 0.0 1.6 0.00 0.00 0.00 82 1047.7
20260506201309 12 237 0.0 1.6 0.00 0.00 0.00 82 1047.7
20260506201230 12 236 0.0 1.6 0.00 0.00 0.00 82 1047.7
20260506201204 12 237 0.0 1.6 0.00 0.00 0.00 82 1047.7
20260506201142 12 237 0.0 3.2 0.00 0.00 0.00 82 1047.7
20260506201131 12 236 0.0 3.2 0.00 0.00 0.00 82 1047.7
20260506200807 12 237 1.6 4.8 0.00 0.00 0.00 81 1047.6
20260506200728 12 237 1.6 4.8 0.00 0.00 0.00 81 1047.6
20260506200720 12 237 1.6 4.8 0.00 0.00 0.00 81 1047.6
20260506200712 12 237 1.6 4.8 0.00 0.00 0.00 81 1047.6
20260506200659 12 237 1.6 4.8 0.00 0.00 0.00 81 1047.6
20260506200424 12 237 3.2 6.4 0.00 0.00 0.00 81 1047.6
20260506200104 12 237 3.2 6.4 0.00 0.00 0.00 80 1047.5
20260506200025 12 237 3.2 6.4 0.00 0.00 0.00 81 1047.5
20260506200017 12 237 3.2 6.4 0.00 0.00 0.00 80 1047.6
20260506200007 12 237 3.2 6.4 0.00 0.00 0.00 80 1047.6
20260506195943 12 237 3.2 6.4 0.00 0.00 0.00 80 1047.5
20260506195403 13 237 3.2 6.4 0.00 0.00 0.00 79 1047.5
20260506195306 13 237 3.2 6.4 0.00 0.00 0.00 79 1047.5
20260506195204 13 237 1.6 4.8 0.00 0.00 0.00 78 1047.5
20260506195107 13 237 1.6 4.8 0.00 0.00 0.00 78 1047.4
20260506195004 13 237 1.6 4.8 0.00 0.03 0.00 78 1047.4
20260506194946 13 237 1.6 4.8 0.00 0.03 0.00 77 1047.5
20260506194937 13 237 1.6 3.2 0.00 0.03 0.00 77 1047.4
20260506194918 13 237 0.0 3.2 0.00 0.03 0.00 76 1047.4
20260506194603 13 237 0.0 3.2 0.00 0.03 0.00 76 1047.4
20260506194548 13 237 0.0 3.2 0.00 0.03 0.00 76 1047.4
20260506194540 13 237 0.0 3.2 0.00 0.03 0.00 76 1047.4
20260506194251 13 237 1.6 3.2 0.00 0.03 0.00 76 1047.4
20260506194242 13 237 1.6 3.2 0.00 0.03 0.00 76 1047.4
20260506194228 14 237 1.6 3.2 0.00 0.03 0.00 75 1047.3
20260506193929 14 237 1.6 3.2 0.00 0.03 0.00 75 1047.3
20260506193919 14 237 1.6 3.2 0.00 0.03 0.00 75 1047.2
20260506193900 14 237 1.6 3.2 0.00 0.03 0.00 74 1047.2
20260506193543 14 237 1.6 3.2 0.00 0.03 0.00 73 1047.1
20260506193444 14 237 1.6 3.2 0.00 0.03 0.00 72 1047.1
20260506193400 14 237 1.6 3.2 0.00 0.03 0.00 71 1047.1
20260506193339 14 237 1.6 3.2 0.00 0.03 0.00 72 1047.1
20260506193333 14 237 0.0 3.2 0.00 0.03 0.00 72 1047.0
20260506193316 14 237 0.0 3.2 0.00 0.03 0.00 72 1047.0
20260506193050 14 237 0.0 3.2 0.00 0.03 0.00 72 1047.0
20260506192816 14 237 0.0 3.2 0.00 0.03 0.00 72 1047.0
20260506192809 14 237 0.0 3.2 0.00 0.03 0.00 72 1046.9
20260506192445 14 237 0.0 3.2 0.00 0.03 0.00 72 1046.9
20260506192344 14 237 1.6 3.2 0.00 0.03 0.00 72 1046.9
20260506192245 14 237 1.6 3.2 0.00 0.03 0.00 72 1046.8
20260506192205 14 237 1.6 3.2 0.00 0.03 0.00 72 1046.8
20260506192144 14 237 1.6 3.2 0.00 0.03 0.00 72 1046.8
20260506192044 15 237 1.6 3.2 0.00 0.03 0.00 72 1046.8
20260506191944 15 237 1.6 3.2 0.00 0.03 0.00 72 1046.8
20260506191842 15 237 1.6 3.2 0.00 0.03 0.00 71 1046.8
20260506191740 15 237 1.6 3.2 0.00 0.03 0.00 71 1046.8
20260506191704 15 237 1.6 3.2 0.00 0.03 0.00 71 1046.8
20260506191640 15 237 1.6 3.2 0.00 0.03 0.00 71 1046.8
20260506191537 15 237 1.6 3.2 0.00 0.03 0.00 71 1046.7
20260506191507 15 237 1.6 4.8 0.00 0.03 0.00 71 1046.7
20260506191500 15 237 1.6 4.8 0.00 0.03 0.00 71 1046.7
20260506191205 15 237 1.6 4.8 0.00 0.03 0.00 71 1046.7
20260506191136 15 237 1.6 4.8 0.00 0.03 0.00 71 1046.7
20260506191052 15 237 1.6 4.8 0.00 0.03 0.00 71 1046.7
20260506191044 15 237 1.6 4.8 0.00 0.03 0.00 71 1046.7
20260506191030 15 237 1.6 4.8 0.00 0.03 0.00 71 1046.7
20260506190737 15 237 1.6 4.8 0.00 0.03 0.00 71 1046.7
20260506190721 15 237 1.6 4.8 0.00 0.03 0.00 71 1046.7
20260506190657 15 237 1.6 4.8 0.00 0.03 0.00 71 1046.7
20260506190332 15 237 1.6 4.8 0.00 0.03 0.00 71 1046.6
20260506190207 15 237 1.6 4.8 0.00 0.03 0.00 71 1046.6
20260506190153 15 237 1.6 4.8 0.00 0.03 0.00 71 1046.6
20260506190059 15 237 1.6 3.2 0.00 0.03 0.00 71 1046.6
20260506190053 15 237 1.6 3.2 0.00 0.03 0.00 72 1046.6
20260506185706 15 237 1.6 4.8 0.00 0.03 0.00 71 1046.5
20260506185632 15 237 1.6 4.8 0.00 0.03 0.00 70 1046.5
20260506185532 15 237 1.6 4.8 0.00 0.03 0.00 70 1046.5
20260506185432 15 237 1.6 6.4 0.00 0.03 0.00 69 1046.4
20260506185332 15 237 1.6 6.4 0.00 0.03 0.00 69 1046.5
20260506185250 15 237 1.6 6.4 0.00 0.03 0.00 69 1046.5
20260506185239 15 237 1.6 6.4 0.00 0.03 0.00 68 1046.5
20260506185231 15 237 1.6 6.4 0.00 0.03 0.00 68 1046.4
20260506185220 15 237 1.6 6.4 0.00 0.03 0.00 68 1046.5
20260506185211 15 237 1.6 6.4 0.00 0.03 0.00 68 1046.4
20260506185202 16 237 1.6 6.4 0.00 0.03 0.00 68 1046.4
20260506185154 16 237 1.6 6.4 0.00 0.03 0.00 67 1046.5
20260506185145 16 237 1.6 6.4 0.00 0.03 0.00 68 1046.5
20260506184918 16 237 1.6 6.4 0.00 0.03 0.00 68 1046.4
20260506184909 16 237 1.6 6.4 0.00 0.03 0.00 68 1046.4
20260506184903 16 236 3.2 6.4 0.00 0.03 0.00 68 1046.4
20260506184850 16 237 3.2 6.4 0.00 0.03 0.00 68 1046.4
20260506184138 16 236 1.6 6.4 0.00 0.03 0.00 67 1046.3
20260506184129 16 237 1.6 6.4 0.00 0.03 0.00 67 1046.3
20260506183902 16 237 1.6 6.4 0.00 0.03 0.00 67 1046.3
20260506183522 16 236 1.6 6.4 0.00 0.03 0.00 67 1046.3
20260506183420 16 236 1.6 6.4 0.00 0.03 0.00 66 1046.3
20260506183318 16 237 1.6 6.4 0.00 0.03 0.00 67 1046.3
20260506183206 16 237 1.6 6.4 0.00 0.03 0.00 67 1046.2
20260506183118 16 237 1.6 6.4 0.00 0.03 0.00 67 1046.2
20260506183024 16 236 1.6 6.4 0.00 0.03 0.00 66 1046.2
20260506182918 16 237 1.6 6.4 0.00 0.03 0.00 66 1046.2
20260506182819 16 236 3.2 8.0 0.00 0.03 0.00 66 1046.2
20260506182704 16 236 3.2 8.0 0.00 0.03 0.00 66 1046.2
20260506182619 16 236 3.2 8.0 0.00 0.03 0.00 66 1046.2
20260506182515 16 236 3.2 8.0 0.00 0.03 0.00 66 1046.1
20260506182417 16 236 3.2 8.0 0.00 0.03 0.00 66 1046.2
20260506182317 16 236 4.8 8.0 0.00 0.03 0.00 66 1046.1
20260506182204 16 236 4.8 8.0 0.00 0.03 0.00 66 1046.1
20260506182118 16 236 4.8 8.0 0.00 0.03 0.00 66 1046.1
20260506182015 16 236 4.8 11.3 0.00 0.03 0.00 66 1046.1
20260506181946 16 236 4.8 11.3 0.00 0.03 0.00 65 1046.1
20260506181937 16 236 3.2 11.3 0.00 0.03 0.00 65 1046.1
20260506181924 16 236 3.2 11.3 0.00 0.03 0.00 65 1046.0
20260506181611 16 236 3.2 11.3 0.00 0.03 0.00 65 1046.0
20260506181508 16 236 3.2 11.3 0.00 0.03 0.00 65 1046.0
20260506181450 16 237 3.2 11.3 0.00 0.03 0.00 65 1046.0
20260506181443 16 236 3.2 11.3 0.00 0.03 0.00 65 1046.0
20260506181210 16 237 3.2 11.3 0.00 0.03 0.00 64 1046.0
20260506181139 16 237 3.2 11.3 0.00 0.03 0.00 64 1046.0
20260506181130 16 237 3.2 8.0 0.00 0.03 0.00 64 1046.0
20260506180814 17 237 3.2 8.0 0.00 0.03 0.00 63 1045.9
20260506180752 17 237 3.2 8.0 0.00 0.03 0.00 64 1045.9
20260506180739 17 237 3.2 8.0 0.00 0.03 0.00 63 1045.9
20260506180733 17 237 3.2 9.7 0.00 0.03 0.00 63 1045.9
20260506180725 17 244 3.2 11.3 0.00 0.03 0.00 63 1045.9
20260506180718 17 244 3.2 11.3 0.00 0.03 0.00 63 1045.9
20260506180647 17 244 3.2 11.3 0.00 0.03 0.00 62 1045.9
20260506180201 17 244 4.8 11.3 0.00 0.03 0.00 62 1045.8
20260506180153 17 244 4.8 11.3 0.00 0.03 0.00 62 1045.8
20260506175706 17 244 4.8 11.3 0.00 0.03 0.00 62 1045.8
20260506175604 17 245 4.8 12.9 0.00 0.03 0.00 62 1045.8
20260506175503 17 201 4.8 12.9 0.00 0.03 0.00 62 1045.8
20260506175403 17 144 4.8 12.9 0.00 0.03 0.00 61 1045.8
20260506175306 17 144 4.8 12.9 0.00 0.03 0.00 61 1045.7
20260506175230 17 144 4.8 12.9 0.00 0.03 0.00 60 1045.8
20260506175218 17 143 4.8 12.9 0.00 0.03 0.00 60 1045.8
20260506175205 17 143 4.8 12.9 0.00 0.03 0.00 60 1045.8
20260506174941 17 141 6.4 12.9 0.00 0.03 0.00 59 1045.8
20260506174706 17 141 6.4 12.9 0.00 0.03 0.00 59 1045.8
20260506174604 17 217 6.4 11.3 0.00 0.03 0.00 59 1045.7
20260506174504 17 217 6.4 11.3 0.00 0.03 0.00 59 1045.8
20260506174404 17 217 6.4 12.9 0.00 0.03 0.00 59 1045.8
20260506174304 17 218 6.4 12.9 0.00 0.03 0.00 58 1045.8
20260506174206 17 208 6.4 12.9 0.00 0.03 0.00 58 1045.7
20260506174102 18 208 6.4 12.9 0.00 0.03 0.00 58 1045.7
20260506173959 18 208 6.4 12.9 0.00 0.03 0.00 57 1045.7
20260506173858 18 210 6.4 12.9 0.00 0.03 0.00 57 1045.7
20260506173758 18 207 6.4 12.9 0.00 0.03 0.00 57 1045.7
20260506173711 18 222 4.8 12.9 0.00 0.03 0.00 57 1045.7
20260506173657 18 222 4.8 12.9 0.00 0.03 0.00 57 1045.7
20260506173557 18 220 6.4 12.9 0.00 0.03 0.00 56 1045.6
20260506173456 18 224 4.8 12.9 0.00 0.03 0.00 56 1045.6
20260506173356 18 187 4.8 12.9 0.00 0.03 0.00 56 1045.6
20260506173256 18 218 4.8 11.3 0.00 0.03 0.00 56 1045.6
20260506173207 18 217 4.8 9.7 0.00 0.03 0.00 56 1045.6
20260506173155 18 217 4.8 9.7 0.00 0.03 0.00 57 1045.6
20260506173054 18 217 4.8 12.9 0.00 0.03 0.00 57 1045.6
20260506172953 18 218 4.8 12.9 0.00 0.03 0.00 56 1045.6
20260506172853 18 218 4.8 12.9 0.00 0.03 0.00 56 1045.6
20260506172754 18 224 6.4 12.9 0.00 0.03 0.00 55 1045.6
20260506172709 18 225 6.4 12.9 0.00 0.03 0.00 55 1045.6
20260506172654 18 225 6.4 12.9 0.00 0.03 0.00 55 1045.6
20260506172611 18 234 6.4 12.9 0.00 0.03 0.00 55 1045.6
20260506172603 18 200 6.4 12.9 0.00 0.03 0.00 55 1045.6
20260506172552 18 200 6.4 12.9 0.00 0.03 0.00 55 1045.6
20260506172534 18 200 6.4 12.9 0.00 0.03 0.00 54 1045.6
20260506172527 18 201 6.4 12.9 0.00 0.03 0.00 54 1045.6
20260506172515 18 220 6.4 12.9 0.00 0.03 0.00 54 1045.5
20260506172247 18 205 6.4 12.9 0.00 0.03 0.00 54 1045.6
20260506172238 18 206 4.8 12.9 0.00 0.03 0.00 54 1045.6
20260506171442 18 204 4.8 12.9 0.00 0.08 0.00 54 1045.5
20260506171341 18 204 6.4 12.9 0.00 0.08 0.00 54 1045.5
20260506171239 18 205 6.4 14.5 0.00 0.08 0.00 54 1045.6
20260506171203 18 239 6.4 14.5 0.00 0.08 0.00 54 1045.6
20260506171140 18 239 6.4 14.5 0.00 0.08 0.00 54 1045.5
20260506171040 18 239 6.4 14.5 0.00 0.08 0.00 54 1045.6
20260506170948 18 211 6.4 14.5 0.00 0.08 0.00 54 1045.6
20260506170940 18 212 6.4 14.5 0.00 0.08 0.00 54 1045.6
20260506170925 18 212 6.4 14.5 0.00 0.08 0.00 54 1045.5
20260506170635 18 213 6.4 14.5 0.00 0.08 0.00 54 1045.6
20260506170535 18 213 6.4 14.5 0.00 0.08 0.00 54 1045.6
20260506170436 18 183 6.4 14.5 0.00 0.08 0.00 53 1045.6
20260506170401 19 182 6.4 14.5 0.00 0.08 0.00 53 1045.5
20260506170352 19 165 6.4 12.9 0.00 0.08 0.00 53 1045.5
20260506170343 19 166 6.4 12.9 0.00 0.08 0.00 53 1045.5
20260506170331 19 166 6.4 12.9 0.00 0.08 0.00 53 1045.5
20260506170051 19 166 6.4 12.9 0.00 0.08 0.00 53 1045.5
20260506170036 19 165 6.4 12.9 0.00 0.08 0.00 52 1045.5
20260506170023 19 165 6.4 12.9 0.00 0.08 0.00 52 1045.5
20260506165754 19 165 4.8 12.9 0.00 0.08 0.00 53 1045.5
20260506165431 19 221 6.4 12.9 0.00 0.08 0.00 53 1045.4
20260506165330 19 222 6.4 12.9 0.00 0.08 0.00 52 1045.5
20260506165205 19 220 6.4 12.9 0.00 0.08 0.00 52 1045.5
20260506165128 19 220 6.4 12.9 0.00 0.08 0.00 53 1045.4
20260506165027 19 211 6.4 12.9 0.00 0.08 0.00 53 1045.4
20260506164923 19 211 6.4 12.9 0.00 0.08 0.00 53 1045.4
20260506164820 19 210 6.4 12.9 0.00 0.08 0.00 52 1045.4
20260506164720 19 208 6.4 12.9 0.00 0.08 0.00 53 1045.4
20260506164702 19 208 6.4 12.9 0.00 0.08 0.00 53 1045.4
20260506164646 19 207 6.4 12.9 0.00 0.08 0.00 53 1045.4
20260506164638 19 208 6.4 12.9 0.00 0.08 0.00 53 1045.4
20260506164313 19 211 6.4 14.5 0.00 0.08 0.00 53 1045.2
20260506164217 19 211 6.4 14.5 0.00 0.08 0.00 53 1045.4
20260506164156 19 216 6.4 14.5 0.00 0.08 0.00 53 1045.4
20260506164118 19 212 6.4 14.5 0.00 0.08 0.00 53 1045.2
20260506164017 19 211 6.4 14.5 0.00 0.08 0.00 53 1045.4
20260506163907 19 211 6.4 14.5 0.00 0.08 0.00 53 1045.4
20260506163807 19 211 6.4 14.5 0.00 0.08 0.00 52 1045.4
20260506163707 19 211 6.4 14.5 0.00 0.08 0.00 52 1045.4
20260506163649 19 211 6.4 14.5 0.00 0.08 0.00 52 1045.5
20260506163605 19 216 6.4 14.5 0.00 0.08 0.00 52 1045.5
20260506163503 20 233 6.4 14.5 0.00 0.08 0.00 52 1045.4
20260506163401 20 249 6.4 14.5 0.00 0.08 0.00 53 1045.4
20260506163308 20 218 6.4 14.5 0.00 0.10 0.00 52 1045.4
20260506163239 20 217 6.4 14.5 0.00 0.10 0.00 52 1045.4
20260506163231 20 217 6.4 14.5 0.00 0.10 0.00 53 1045.4
20260506162858 20 231 6.4 14.5 0.00 0.10 0.00 53 1045.4
20260506162833 20 231 6.4 14.5 0.00 0.10 0.00 53 1045.2
20260506162814 20 231 6.4 14.5 0.00 0.10 0.00 53 1045.2
20260506162806 20 231 6.4 14.5 0.00 0.10 0.00 53 1045.2
20260506162756 20 166 6.4 16.1 0.00 0.10 0.00 53 1045.2
20260506162745 20 160 6.4 16.1 0.00 0.10 0.00 52 1045.2
20260506162513 20 174 6.4 16.1 0.00 0.13 0.00 53 1045.2
20260506162251 20 216 6.4 19.3 0.00 0.13 0.00 53 1045.2
20260506162242 20 217 6.4 19.3 0.00 0.15 0.00 53 1045.2
20260506162234 20 158 8.0 19.3 0.00 0.15 0.00 53 1045.2
20260506162223 20 244 8.0 19.3 0.00 0.15 0.00 52 1045.1
20260506162205 20 251 8.0 19.3 0.00 0.15 0.00 52 1045.2
20260506161923 20 162 6.4 19.3 0.00 0.15 0.00 52 1045.1
20260506161653 20 194 6.4 19.3 0.00 0.18 0.00 52 1045.1
20260506161641 20 198 6.4 14.5 0.00 0.18 0.00 52 1045.1
20260506160838 20 198 6.4 14.5 0.00 0.23 0.00 52 1045.1
20260506160738 20 243 6.4 14.5 0.00 0.23 0.00 52 1045.1
20260506160643 20 192 6.4 14.5 0.00 0.23 0.00 52 1045.1
20260506160540 20 140 6.4 14.5 0.00 0.23 0.00 54 1045.1
20260506160438 20 231 6.4 14.5 0.00 0.23 0.00 54 1045.1
20260506160337 19 231 6.4 14.5 0.00 0.25 0.00 53 1045.1
20260506160237 19 233 6.4 14.5 0.00 0.25 0.00 52 1045.1
20260506160136 19 231 6.4 14.5 0.00 0.28 0.00 52 1045.1
20260506160035 19 153 4.8 14.5 0.00 0.28 0.00 52 1045.1
20260506155934 19 147 4.8 14.5 0.00 0.28 0.00 52 1045.1
20260506155916 19 143 4.8 14.5 0.00 0.30 0.00 53 1045.1
20260506155904 19 218 6.4 14.5 0.00 0.30 0.00 52 1045.1
20260506155854 19 227 6.4 14.5 0.00 0.30 0.00 52 1045.1
20260506155528 19 183 6.4 14.5 0.00 0.30 0.00 53 1045.2
20260506155429 19 238 6.4 14.5 0.00 0.30 0.00 53 1045.2
20260506155328 19 264 6.4 14.5 0.00 0.33 0.00 53 1045.1
20260506155225 19 264 6.4 14.5 0.00 0.33 0.00 52 1045.1
20260506155139 19 264 8.0 14.5 0.00 0.33 0.00 52 1045.1
20260506155125 19 264 8.0 17.7 0.00 0.33 0.00 52 1045.1
20260506155027 19 264 8.0 17.7 0.00 0.33 0.00 52 1045.1
20260506154951 19 264 8.0 17.7 0.00 0.33 0.00 52 1045.1
20260506154944 19 264 8.0 17.7 0.00 0.33 0.00 52 1045.1
20260506154638 20 246 6.4 17.7 0.00 0.33 0.00 52 1045.1
20260506154620 20 227 6.4 17.7 0.00 0.33 0.00 52 1045.1
20260506154557 20 242 6.4 17.7 0.00 0.33 0.00 51 1045.1
20260506154550 20 184 6.4 17.7 0.00 0.36 0.00 51 1045.0
20260506154538 20 187 6.4 19.3 0.00 0.36 0.00 51 1045.1
20260506154530 20 187 8.0 19.3 0.00 0.36 0.00 52 1045.2
20260506154519 20 185 6.4 19.3 0.00 0.36 0.00 52 1045.1
20260506154512 20 204 6.4 19.3 0.00 0.36 0.00 52 1045.1
20260506154245 20 192 8.0 19.3 0.00 0.38 0.00 53 1045.1
20260506153748 20 245 8.0 19.3 0.00 0.38 0.00 52 1045.1
20260506153735 20 255 9.7 19.3 0.00 0.38 0.00 52 1045.1
20260506153508 20 209 8.0 14.5 0.00 0.41 0.00 51 1045.2
20260506153241 20 174 8.0 14.5 0.00 0.43 0.00 51 1045.1
20260506153234 20 168 8.0 14.5 0.00 0.43 0.00 51 1045.1
20260506153223 20 162 8.0 14.5 0.00 0.43 0.00 52 1045.1
20260506153204 20 177 8.0 14.5 0.00 0.46 0.00 51 1045.1
20260506153142 20 179 8.0 14.5 0.00 0.48 0.00 51 1045.2
20260506153133 20 228 8.0 14.5 0.00 0.51 0.00 52 1045.2
20260506152908 20 229 8.0 14.5 0.00 0.51 0.00 53 1045.2
20260506152854 20 226 6.4 14.5 0.00 0.53 0.00 52 1045.1
20260506152841 20 188 6.4 14.5 0.00 0.58 0.00 52 1045.1
20260506152831 20 189 6.4 14.5 0.00 0.61 0.00 51 1045.2
20260506152824 20 206 6.4 12.9 0.00 0.61 0.00 53 1045.2
20260506152341 20 247 8.0 17.7 0.00 0.69 0.00 52 1045.2
20260506152327 20 247 8.0 17.7 0.00 0.71 0.00 52 1045.1
20260506152321 20 228 8.0 17.7 0.00 0.71 0.00 52 1045.2
20260506152311 20 228 6.4 17.7 0.00 0.71 0.00 53 1045.2
20260506152043 20 221 6.4 17.7 0.00 0.71 0.00 51 1045.2
20260506151336 20 222 4.8 17.7 0.00 0.74 0.00 50 1045.2
20260506151326 20 221 4.8 17.7 0.00 0.74 0.00 51 1045.4
20260506151004 20 149 3.2 11.3 0.00 0.74 0.00 51 1045.4
20260506150904 20 231 4.8 11.3 0.00 0.74 0.00 51 1045.4
20260506150803 20 233 4.8 14.5 0.00 0.74 0.00 51 1045.4
20260506150703 20 233 4.8 14.5 0.00 0.74 0.00 51 1045.4
20260506150605 20 233 4.8 14.5 0.00 0.74 0.00 52 1045.4
20260506150506 20 150 4.8 14.5 0.00 0.74 0.00 50 1045.4
20260506150434 20 149 4.8 14.5 0.00 0.74 0.00 51 1045.4
20260506150424 20 227 4.8 14.5 0.00 0.74 0.00 50 1045.4
20260506150104 20 231 4.8 14.5 0.00 0.74 0.00 49 1045.5
20260506150004 20 231 4.8 14.5 0.00 0.74 0.00 49 1045.5
20260506145903 20 233 4.8 14.5 0.00 0.74 0.00 50 1045.5
20260506145804 20 191 4.8 14.5 0.00 0.74 0.00 50 1045.5
20260506145705 20 200 4.8 11.3 0.00 0.74 0.00 50 1045.5
20260506145633 20 206 4.8 11.3 0.00 0.74 0.00 50 1045.5
20260506145603 20 206 4.8 11.3 0.00 0.74 0.00 50 1045.5
20260506145500 20 206 4.8 11.3 0.00 0.74 0.00 50 1045.5
20260506145424 21 206 4.8 11.3 0.00 0.74 0.00 49 1045.5
20260506145414 21 206 6.4 11.3 0.00 0.74 0.00 48 1045.5
20260506145358 21 207 6.4 12.9 0.00 0.74 0.00 48 1045.5
20260506145348 21 206 6.4 12.9 0.00 0.74 0.00 48 1045.5
20260506145338 21 207 6.4 12.9 0.00 0.74 0.00 48 1045.5
20260506144801 21 211 6.4 12.9 0.00 0.74 0.00 48 1045.5
20260506144701 21 212 4.8 12.9 0.00 0.74 0.00 48 1045.5
20260506144632 21 208 4.8 12.9 0.00 0.74 0.00 48 1045.5
20260506144601 21 208 4.8 12.9 0.00 0.74 0.00 48 1045.5
20260506144501 21 208 4.8 12.9 0.00 0.74 0.00 48 1045.5
20260506144402 21 208 4.8 12.9 0.00 0.74 0.00 48 1045.5
20260506144305 21 208 4.8 12.9 0.00 0.74 0.00 48 1045.6
20260506144202 21 256 4.8 12.9 0.00 0.74 0.00 48 1045.5
20260506144131 21 256 6.4 12.9 0.00 0.74 0.00 48 1045.5
20260506144101 21 258 6.4 12.9 0.00 0.74 0.00 47 1045.5
20260506144018 21 203 6.4 16.1 0.00 0.74 0.00 47 1045.5
20260506144009 21 203 6.4 16.1 0.00 0.74 0.00 46 1045.6
20260506143958 21 203 6.4 16.1 0.00 0.74 0.00 46 1045.6
20260506143947 21 202 8.0 16.1 0.00 0.74 0.00 47 1045.6
20260506143938 21 202 8.0 16.1 0.00 0.74 0.00 46 1045.6
20260506143438 21 203 8.0 16.1 0.00 0.74 0.00 46 1045.6
20260506143427 21 203 8.0 16.1 0.00 0.74 0.00 46 1045.7
20260506143131 21 196 8.0 16.1 0.00 0.74 0.00 47 1045.7
20260506143120 21 218 8.0 16.1 0.00 0.74 0.00 47 1045.7
20260506143105 21 197 6.4 12.9 0.00 0.74 0.00 46 1045.7
20260506143057 21 197 8.0 14.5 0.00 0.74 0.00 46 1045.7
20260506143050 21 201 6.4 14.5 0.00 0.74 0.00 46 1045.7
20260506143040 21 216 6.4 14.5 0.00 0.74 0.00 46 1045.6
20260506143031 21 249 6.4 14.5 0.00 0.74 0.00 45 1045.7
20260506143024 21 255 6.4 14.5 0.00 0.74 0.00 45 1045.7
20260506143010 21 258 6.4 14.5 0.00 0.74 0.00 46 1045.6
20260506142949 21 260 6.4 14.5 0.00 0.74 0.00 45 1045.6
20260506142502 21 222 6.4 14.5 0.00 0.74 0.00 47 1045.7
20260506142451 21 239 6.4 14.5 0.00 0.74 0.00 47 1045.7
20260506142218 21 252 4.8 11.3 0.00 0.74 0.00 47 1045.7
20260506141948 21 216 6.4 12.9 0.00 0.74 0.00 46 1045.7
20260506141942 21 245 6.4 12.9 0.00 0.74 0.00 46 1045.7
20260506141401 21 246 6.4 20.9 0.00 0.74 0.00 46 1045.7
20260506141303 21 244 6.4 20.9 0.00 0.74 0.00 46 1045.8
20260506141214 21 245 8.0 20.9 0.00 0.74 0.00 48 1045.8
20260506141158 21 245 8.0 20.9 0.00 0.74 0.00 48 1045.8
20260506141144 21 245 8.0 20.9 0.00 0.74 0.00 46 1045.8
20260506140921 21 243 8.0 20.9 0.00 0.74 0.00 45 1045.8
20260506140635 21 186 8.0 20.9 0.00 0.74 0.00 45 1045.8
20260506140559 21 246 8.0 19.3 0.00 0.74 0.00 45 1045.8
20260506140459 21 241 8.0 14.5 0.00 0.74 0.00 45 1045.9
20260506140356 21 255 8.0 14.5 0.00 0.74 0.00 45 1045.8
20260506140256 21 256 8.0 14.5 0.00 0.74 0.00 46 1045.8
20260506140157 21 231 8.0 14.5 0.00 0.74 0.00 46 1045.8
20260506140134 21 230 8.0 16.1 0.00 0.74 0.00 47 1045.9
20260506140056 21 229 8.0 16.1 0.00 0.74 0.00 46 1045.9
20260506135957 21 222 8.0 16.1 0.00 0.74 0.00 47 1045.9
20260506135857 21 225 8.0 16.1 0.00 0.74 0.00 46 1045.9
20260506135757 21 237 8.0 16.1 0.00 0.74 0.00 46 1045.9
20260506135653 21 233 8.0 16.1 0.00 0.74 0.00 46 1045.9
20260506135644 21 233 9.7 16.1 0.00 0.74 0.00 46 1045.9
20260506135551 21 230 9.7 16.1 0.00 0.74 0.00 46 1045.9
20260506135450 21 228 9.7 16.1 0.00 0.74 0.00 46 1045.9
20260506135350 21 208 9.7 16.1 0.00 0.74 0.00 45 1045.9
20260506135327 21 206 9.7 16.1 0.00 0.74 0.00 45 1045.9
20260506135317 21 206 9.7 16.1 0.00 0.74 0.00 46 1045.9
20260506135310 21 190 9.7 16.1 0.00 0.74 0.00 46 1045.9
20260506134945 21 190 9.7 16.1 0.00 0.74 0.00 46 1045.9
20260506134845 21 229 9.7 16.1 0.00 0.74 0.00 47 1046.0
20260506134745 21 233 9.7 16.1 0.00 0.74 0.00 46 1046.0
20260506134703 21 245 9.7 16.1 0.00 0.74 0.00 47 1046.0
20260506134653 21 246 9.7 16.1 0.00 0.74 0.00 47 1046.0
20260506134643 21 243 9.7 16.1 0.00 0.74 0.00 48 1046.0
20260506134630 21 241 8.0 16.1 0.00 0.74 0.00 48 1046.0
20260506134620 21 255 8.0 16.1 0.00 0.74 0.00 48 1046.0
20260506134349 21 229 8.0 16.1 0.00 0.74 0.00 50 1046.1
20260506134048 21 232 8.0 20.9 0.00 0.74 0.00 50 1046.0
20260506134039 20 273 9.7 20.9 0.00 0.74 0.00 49 1046.1
20260506134032 20 268 8.0 20.9 0.00 0.74 0.00 50 1046.1
20260506134020 20 242 8.0 20.9 0.00 0.74 0.00 51 1046.1
20260506134003 20 260 8.0 20.9 0.00 0.74 0.00 50 1046.1
20260506133957 20 259 8.0 20.9 0.00 0.74 0.00 50 1046.1
20260506133725 20 226 8.0 20.9 0.00 0.74 0.00 51 1046.1
20260506133717 20 222 6.4 20.9 0.00 0.74 0.00 53 1046.1
20260506133710 20 266 6.4 20.9 0.00 0.74 0.00 53 1046.1
20260506133440 20 285 6.4 20.9 0.00 0.74 0.00 52 1046.1
20260506133426 20 240 4.8 14.5 0.00 0.74 0.00 52 1046.1
20260506132710 20 235 6.4 14.5 0.00 0.74 0.00 52 1046.2
20260506132700 20 233 6.4 14.5 0.00 0.74 0.00 51 1046.1
20260506132653 20 104 6.4 14.5 0.00 0.74 0.00 50 1046.2
20260506132645 20 103 6.4 14.5 0.00 0.74 0.00 49 1046.1
20260506132634 20 103 6.4 14.5 0.00 0.74 0.00 48 1046.2
20260506132352 20 147 6.4 12.9 0.00 0.74 0.00 47 1046.1
20260506132122 20 126 4.8 12.9 0.00 0.74 0.00 48 1046.2
20260506131854 20 164 4.8 12.9 0.00 0.74 0.00 49 1046.2
20260506131615 20 164 4.8 12.9 0.00 0.74 0.00 49 1046.3
20260506131518 20 164 6.4 12.9 0.00 0.74 0.00 48 1046.3
20260506131413 20 164 6.4 16.1 0.00 0.74 0.00 50 1046.2
20260506131313 20 166 6.4 16.1 0.00 0.74 0.00 50 1046.3
20260506131259 20 166 6.4 16.1 0.00 0.74 0.00 50 1046.2
20260506131247 20 166 6.4 16.1 0.00 0.74 0.00 50 1046.3
20260506131240 20 167 6.4 16.1 0.00 0.74 0.00 49 1046.3
20260506131228 20 167 6.4 16.1 0.00 0.74 0.00 49 1046.3
20260506131003 20 160 6.4 16.1 0.00 0.74 0.00 48 1046.3
20260506130946 20 223 4.8 16.1 0.00 0.74 0.00 47 1046.3
20260506130934 20 225 4.8 16.1 0.00 0.74 0.00 47 1046.3
20260506130924 20 228 4.8 16.1 0.00 0.74 0.00 47 1046.3
20260506130658 20 258 3.2 12.9 0.00 0.74 0.00 49 1046.4
20260506130648 20 269 3.2 9.7 0.00 0.74 0.00 48 1046.4
20260506130640 20 269 3.2 9.7 0.00 0.74 0.00 47 1046.4
20260506130623 20 270 4.8 9.7 0.00 0.74 0.00 47 1046.3
20260506130616 20 270 4.8 11.3 0.00 0.74 0.00 47 1046.4
20260506130343 20 269 6.4 14.5 0.00 0.74 0.00 48 1046.3
20260506130331 20 270 6.4 14.5 0.00 0.74 0.00 48 1046.3
20260506125845 20 270 6.4 14.5 0.00 0.74 0.00 48 1046.3
20260506125339 20 270 8.0 14.5 0.00 0.74 0.00 49 1046.3
20260506125103 20 270 8.0 14.5 0.00 0.74 0.00 49 1046.4
20260506125004 20 270 6.4 14.5 0.00 0.74 0.00 49 1046.4
20260506124904 20 272 6.4 14.5 0.00 0.74 0.00 50 1046.4
20260506124803 20 275 6.4 12.9 0.00 0.74 0.00 50 1046.4
20260506124704 20 263 6.4 12.9 0.00 0.74 0.00 50 1046.4
20260506124620 20 191 6.4 11.3 0.00 0.74 0.00 51 1046.4
20260506124603 20 190 6.4 11.3 0.00 0.74 0.00 51 1046.4
20260506124504 20 189 6.4 11.3 0.00 0.74 0.00 51 1046.4
20260506124440 20 182 6.4 12.9 0.00 0.74 0.00 51 1046.4
20260506124430 19 181 4.8 12.9 0.00 0.74 0.00 50 1046.4
20260506124418 19 181 6.4 12.9 0.00 0.74 0.00 51 1046.4
20260506124405 19 181 4.8 12.9 0.00 0.74 0.00 50 1046.4
20260506124140 20 181 6.4 12.9 0.00 0.74 0.00 49 1046.3
20260506124132 20 182 6.4 12.9 0.00 0.74 0.00 49 1046.4
20260506124125 19 182 4.8 12.9 0.00 0.74 0.00 51 1046.3
20260506124111 19 183 4.8 12.9 0.00 0.74 0.00 52 1046.3
20260506124101 19 183 4.8 12.9 0.00 0.74 0.00 53 1046.4